Time,TemperatureF,DewpointF,PressureIn,WindDirection,WindDirectionDegrees,WindSpeedMPH,WindSpeedGustMPH,Humidity,HourlyPrecipIn,Conditions,Clouds,dailyrainin,SolarRadiationWatts/m^2,SoftwareType,DateUTC
2013-03-12 00:02:00,29.3,26.5,30.04,ESE,120,0.0,0.0,89,0.00,,,0.00,0,Wunderground v.1.15,2013-03-12 06:02:00,
2013-03-12 00:05:00,29.3,26.5,30.04,ESE,120,0.0,0.0,89,0.00,,,0.00,0,Wunderground v.1.15,2013-03-12 06:05:00,
2013-03-12 00:08:00,29.3,26.5,30.04,ESE,120,0.0,0.0,89,0.00,,,0.00,0,Wunderground v.1.15,2013-03-12 06:08:00,
2013-03-12 00:10:00,29.3,26.5,30.04,ESE,120,0.0,0.0,89,0.00,,,0.00,0,Wunderground v.1.15,2013-03-12 06:10:00,
2013-03-12 00:11:00,29.3,26.5,30.04,ESE,120,0.0,0.0,89,0.00,,,0.00,0,Wunderground v.1.15,2013-03-12 06:11:00,
2013-03-12 00:13:00,29.3,26.5,30.04,ESE,120,0.0,0.0,89,0.00,,,0.00,0,Wunderground v.1.15,2013-03-12 06:13:00,
2013-03-12 00:14:00,29.3,26.5,30.04,ESE,120,0.0,0.0,89,0.00,,,0.00,0,Wunderground v.1.15,2013-03-12 06:14:00,
2013-03-12 00:19:00,29.1,26.3,30.05,ESE,120,0.0,0.0,89,0.00,,,0.00,0,Wunderground v.1.15,2013-03-12 06:19:00,
2013-03-12 00:20:00,29.0,26.2,30.05,ESE,120,0.0,0.0,89,0.00,,,0.00,0,Wunderground v.1.15,2013-03-12 06:20:00,
2013-03-12 00:23:00,28.8,26.0,30.05,ESE,120,0.0,0.0,89,0.00,,,0.00,0,Wunderground v.1.15,2013-03-12 06:23:00,
2013-03-12 00:26:00,28.8,26.0,30.05,ESE,120,0.0,0.0,89,0.00,,,0.00,0,Wunderground v.1.15,2013-03-12 06:26:00,
2013-03-12 00:29:00,28.8,26.0,30.05,ESE,120,0.0,0.0,89,0.00,,,0.00,0,Wunderground v.1.15,2013-03-12 06:29:00,
2013-03-12 00:32:00,29.0,26.2,30.05,ESE,120,0.0,0.0,89,0.00,,,0.00,0,Wunderground v.1.15,2013-03-12 06:32:00,
2013-03-12 00:33:00,29.0,26.2,30.05,ESE,120,0.0,0.0,89,0.00,,,0.00,0,Wunderground v.1.15,2013-03-12 06:33:00,
2013-03-12 00:34:00,29.0,26.2,30.05,ESE,120,0.0,0.0,89,0.00,,,0.00,0,Wunderground v.1.15,2013-03-12 06:34:00,
2013-03-12 00:37:00,29.0,26.2,30.05,ESE,120,0.0,0.0,89,0.00,,,0.00,0,Wunderground v.1.15,2013-03-12 06:37:00,
2013-03-12 00:39:00,29.0,26.2,30.05,ESE,120,0.0,0.0,89,0.00,,,0.00,0,Wunderground v.1.15,2013-03-12 06:39:00,
2013-03-12 00:40:00,29.0,26.2,30.05,ESE,120,0.0,0.0,89,0.00,,,0.00,0,Wunderground v.1.15,2013-03-12 06:40:00,
2013-03-12 00:42:00,29.0,26.2,30.05,ESE,120,0.0,0.0,89,0.00,,,0.00,0,Wunderground v.1.15,2013-03-12 06:42:00,
2013-03-12 00:45:00,29.0,26.2,30.06,ESE,120,0.0,0.0,89,0.00,,,0.00,0,Wunderground v.1.15,2013-03-12 06:45:00,
2013-03-12 00:48:00,28.8,26.0,30.06,NNE,30,0.0,3.0,89,0.00,,,0.00,0,Wunderground v.1.15,2013-03-12 06:48:00,
2013-03-12 00:49:00,28.7,25.9,30.06,East,88,0.0,3.0,89,0.00,,,0.00,0,Wunderground v.1.15,2013-03-12 06:49:00,
2013-03-12 00:51:00,28.7,25.9,30.06,NNE,18,1.0,10.0,89,0.00,,,0.00,0,Wunderground v.1.15,2013-03-12 06:51:00,
2013-03-12 00:53:00,28.7,26.1,30.06,North,354,2.0,10.0,90,0.00,,,0.00,0,Wunderground v.1.15,2013-03-12 06:53:00,
2013-03-12 00:55:00,28.7,25.3,30.06,North,356,3.0,10.0,87,0.00,,,0.00,0,Wunderground v.1.15,2013-03-12 06:55:00,
2013-03-12 00:56:00,28.7,25.6,30.06,North,0,3.0,10.0,88,0.00,,,0.00,0,Wunderground v.1.15,2013-03-12 06:56:00,
2013-03-12 01:00:00,28.7,25.6,30.06,North,10,3.0,3.0,88,0.00,,,0.00,0,Wunderground v.1.15,2013-03-12 07:00:00,
2013-03-12 01:02:00,28.7,25.6,30.06,North,3,2.0,6.0,88,0.00,,,0.00,0,Wunderground v.1.15,2013-03-12 07:02:00,
2013-03-12 01:04:00,28.7,25.3,30.06,NNE,14,2.0,6.0,87,0.00,,,0.00,0,Wunderground v.1.15,2013-03-12 07:04:00,
2013-03-12 01:05:00,28.7,25.3,30.06,North,0,2.0,6.0,87,0.00,,,0.00,0,Wunderground v.1.15,2013-03-12 07:05:00,
2013-03-12 01:07:00,28.7,25.3,30.06,North,0,3.0,7.0,87,0.00,,,0.00,0,Wunderground v.1.15,2013-03-12 07:07:00,
2013-03-12 01:09:00,28.8,25.4,30.06,North,1,3.0,7.0,87,0.00,,,0.00,0,Wunderground v.1.15,2013-03-12 07:09:00,
2013-03-12 01:10:00,28.8,25.4,30.06,North,0,4.0,6.0,87,0.00,,,0.00,0,Wunderground v.1.15,2013-03-12 07:10:00,
2013-03-12 01:11:00,28.8,24.6,30.06,NNE,18,4.0,6.0,84,0.00,,,0.00,0,Wunderground v.1.15,2013-03-12 07:11:00,
2013-03-12 01:15:00,28.8,24.9,30.06,NNE,14,5.0,6.0,85,0.00,,,0.00,0,Wunderground v.1.15,2013-03-12 07:15:00,
2013-03-12 01:16:00,28.8,24.6,30.06,North,10,5.0,6.0,84,0.00,,,0.00,0,Wunderground v.1.15,2013-03-12 07:16:00,
2013-03-12 01:17:00,28.8,24.3,30.06,North,1,5.0,6.0,83,0.00,,,0.00,0,Wunderground v.1.15,2013-03-12 07:17:00,
2013-03-12 01:18:00,28.8,24.6,30.06,North,8,5.0,6.0,84,0.00,,,0.00,0,Wunderground v.1.15,2013-03-12 07:18:00,
2013-03-12 01:23:00,28.8,24.3,30.06,North,0,4.0,7.0,83,0.00,,,0.00,0,Wunderground v.1.15,2013-03-12 07:23:00,
2013-03-12 01:24:00,28.8,24.3,30.06,NE,38,4.0,7.0,83,0.00,,,0.00,0,Wunderground v.1.15,2013-03-12 07:24:00,
2013-03-12 01:26:00,28.8,24.0,30.06,North,6,4.0,7.0,82,0.00,,,0.00,0,Wunderground v.1.15,2013-03-12 07:26:00,
2013-03-12 01:30:00,28.8,23.7,30.07,North,0,4.0,4.0,81,0.00,,,0.00,0,Wunderground v.1.15,2013-03-12 07:30:00,
2013-03-12 01:31:00,28.8,23.7,30.07,North,359,4.0,5.0,81,0.00,,,0.00,0,Wunderground v.1.15,2013-03-12 07:31:00,
2013-03-12 01:35:00,28.8,23.7,30.07,North,0,4.0,10.0,81,0.00,,,0.00,0,Wunderground v.1.15,2013-03-12 07:35:00,
2013-03-12 01:37:00,28.8,23.7,30.07,North,10,4.0,10.0,81,0.00,,,0.00,0,Wunderground v.1.15,2013-03-12 07:37:00,
2013-03-12 01:38:00,28.8,23.4,30.07,NNE,13,5.0,10.0,80,0.00,,,0.00,0,Wunderground v.1.15,2013-03-12 07:38:00,
2013-03-12 01:39:00,28.8,23.7,30.07,NNE,24,5.0,10.0,81,0.00,,,0.00,0,Wunderground v.1.15,2013-03-12 07:39:00,
2013-03-12 01:44:00,28.8,24.0,30.07,NNE,13,4.0,10.0,82,0.00,,,0.00,0,Wunderground v.1.15,2013-03-12 07:44:00,
2013-03-12 01:48:00,28.7,23.6,30.07,North,4,4.0,10.0,81,0.00,,,0.00,0,Wunderground v.1.15,2013-03-12 07:48:00,
2013-03-12 01:50:00,28.7,23.9,30.07,North,8,4.0,10.0,82,0.00,,,0.00,0,Wunderground v.1.15,2013-03-12 07:50:00,
2013-03-12 01:53:00,28.7,23.3,30.07,North,352,5.0,10.0,80,0.00,,,0.00,0,Wunderground v.1.15,2013-03-12 07:53:00,
2013-03-12 01:54:00,28.7,23.3,30.07,North,3,5.0,10.0,80,0.00,,,0.00,0,Wunderground v.1.15,2013-03-12 07:54:00,
2013-03-12 01:55:00,28.7,23.3,30.07,North,354,4.0,10.0,80,0.00,,,0.00,0,Wunderground v.1.15,2013-03-12 07:55:00,
2013-03-12 01:57:00,28.7,23.3,30.07,NE,42,4.0,10.0,80,0.00,,,0.00,0,Wunderground v.1.15,2013-03-12 07:57:00,
2013-03-12 01:59:00,28.7,23.3,30.07,North,353,4.0,10.0,80,0.00,,,0.00,0,Wunderground v.1.15,2013-03-12 07:59:00,
2013-03-12 02:02:00,28.7,23.0,30.08,North,359,2.0,10.0,79,0.00,,,0.00,0,Wunderground v.1.15,2013-03-12 08:02:00,
2013-03-12 02:03:00,28.7,23.3,30.08,NW,318,2.0,10.0,80,0.00,,,0.00,0,Wunderground v.1.15,2013-03-12 08:03:00,
2013-03-12 02:04:00,28.7,23.3,30.08,NW,309,1.0,10.0,80,0.00,,,0.00,0,Wunderground v.1.15,2013-03-12 08:04:00,
2013-03-12 02:08:00,28.5,23.1,30.08,NNE,17,1.0,10.0,80,0.00,,,0.00,0,Wunderground v.1.15,2013-03-12 08:08:00,
2013-03-12 02:09:00,28.5,23.1,30.08,North,7,1.0,10.0,80,0.00,,,0.00,0,Wunderground v.1.15,2013-03-12 08:09:00,
2013-03-12 02:14:00,28.7,23.3,30.08,NE,41,1.0,10.0,80,0.00,,,0.00,0,Wunderground v.1.15,2013-03-12 08:14:00,
2013-03-12 02:15:00,28.5,23.1,30.07,NE,52,1.0,10.0,80,0.00,,,0.00,0,Wunderground v.1.15,2013-03-12 08:15:00,
2013-03-12 02:17:00,28.5,23.1,30.07,North,359,1.0,10.0,80,0.00,,,0.00,0,Wunderground v.1.15,2013-03-12 08:17:00,
2013-03-12 02:19:00,28.5,23.1,30.07,North,359,1.0,10.0,80,0.00,,,0.00,0,Wunderground v.1.15,2013-03-12 08:19:00,
2013-03-12 02:20:00,28.5,23.1,30.07,North,359,1.0,1.0,80,0.00,,,0.00,0,Wunderground v.1.15,2013-03-12 08:20:00,
2013-03-12 02:23:00,28.5,23.1,30.07,North,11,1.0,10.0,80,0.00,,,0.00,0,Wunderground v.1.15,2013-03-12 08:23:00,
2013-03-12 02:25:00,28.5,23.4,30.07,North,11,1.0,10.0,81,0.00,,,0.00,0,Wunderground v.1.15,2013-03-12 08:25:00,
2013-03-12 02:27:00,28.5,23.1,30.07,NE,38,1.0,10.0,80,0.00,,,0.00,0,Wunderground v.1.15,2013-03-12 08:27:00,
2013-03-12 02:31:00,28.5,23.1,30.07,East,99,1.0,1.0,80,0.00,,,0.00,0,Wunderground v.1.15,2013-03-12 08:31:00,
2013-03-12 02:32:00,28.5,23.1,30.07,North,8,1.0,7.0,80,0.00,,,0.00,0,Wunderground v.1.15,2013-03-12 08:32:00,
2013-03-12 02:33:00,28.5,23.1,30.07,North,8,1.0,7.0,80,0.00,,,0.00,0,Wunderground v.1.15,2013-03-12 08:33:00,
2013-03-12 02:34:00,28.5,23.1,30.07,North,8,1.0,7.0,80,0.00,,,0.00,0,Wunderground v.1.15,2013-03-12 08:34:00,
2013-03-12 02:36:00,28.5,23.1,30.07,NNE,30,1.0,7.0,80,0.00,,,0.00,0,Wunderground v.1.15,2013-03-12 08:36:00,
2013-03-12 02:38:00,28.5,23.1,30.07,NNE,31,0.0,7.0,80,0.00,,,0.00,0,Wunderground v.1.15,2013-03-12 08:38:00,
2013-03-12 02:40:00,28.5,23.1,30.07,North,10,0.0,7.0,80,0.00,,,0.00,0,Wunderground v.1.15,2013-03-12 08:40:00,
2013-03-12 02:43:00,28.5,23.1,30.07,North,10,0.0,7.0,80,0.00,,,0.00,0,Wunderground v.1.15,2013-03-12 08:43:00,
2013-03-12 02:44:00,28.5,23.1,30.07,North,10,0.0,7.0,80,0.00,,,0.00,0,Wunderground v.1.15,2013-03-12 08:44:00,
2013-03-12 02:47:00,28.5,23.1,30.08,North,359,0.0,7.0,80,0.00,,,0.00,0,Wunderground v.1.15,2013-03-12 08:47:00,
2013-03-12 02:49:00,28.5,23.1,30.08,North,359,0.0,7.0,80,0.00,,,0.00,0,Wunderground v.1.15,2013-03-12 08:49:00,
2013-03-12 02:50:00,28.5,23.1,30.08,North,359,0.0,7.0,80,0.00,,,0.00,0,Wunderground v.1.15,2013-03-12 08:50:00,
2013-03-12 02:52:00,28.5,23.1,30.08,North,359,0.0,7.0,80,0.00,,,0.00,0,Wunderground v.1.15,2013-03-12 08:52:00,
2013-03-12 02:54:00,28.5,23.1,30.08,North,359,0.0,7.0,80,0.00,,,0.00,0,Wunderground v.1.15,2013-03-12 08:54:00,
2013-03-12 02:58:00,28.4,23.0,30.08,NNE,24,0.0,7.0,80,0.00,,,0.00,0,Wunderground v.1.15,2013-03-12 08:58:00,
2013-03-12 02:59:00,28.4,23.0,30.08,NE,47,0.0,7.0,80,0.00,,,0.00,0,Wunderground v.1.15,2013-03-12 08:59:00,
2013-03-12 03:00:00,28.4,23.0,30.07,NE,51,0.0,5.0,80,0.00,,,0.00,0,Wunderground v.1.15,2013-03-12 09:00:00,
2013-03-12 03:04:00,28.4,23.0,30.07,North,359,1.0,5.0,80,0.00,,,0.00,0,Wunderground v.1.15,2013-03-12 09:04:00,
2013-03-12 03:06:00,28.4,23.0,30.07,North,8,1.0,5.0,80,0.00,,,0.00,0,Wunderground v.1.15,2013-03-12 09:06:00,
2013-03-12 03:07:00,28.4,23.0,30.07,NNE,27,1.0,5.0,80,0.00,,,0.00,0,Wunderground v.1.15,2013-03-12 09:07:00,
2013-03-12 03:12:00,28.2,22.5,30.07,ENE,71,2.0,5.0,79,0.00,,,0.00,0,Wunderground v.1.15,2013-03-12 09:12:00,
2013-03-12 03:13:00,28.2,22.5,30.07,ENE,75,2.0,5.0,79,0.00,,,0.00,0,Wunderground v.1.15,2013-03-12 09:13:00,
2013-03-12 03:14:00,28.2,22.5,30.07,ENE,75,2.0,5.0,79,0.00,,,0.00,0,Wunderground v.1.15,2013-03-12 09:14:00,
2013-03-12 03:18:00,28.2,22.8,30.07,ENE,72,2.0,5.0,80,0.00,,,0.00,0,Wunderground v.1.15,2013-03-12 09:18:00,
2013-03-12 03:20:00,28.2,22.2,30.07,NNE,13,1.0,5.0,78,0.00,,,0.00,0,Wunderground v.1.15,2013-03-12 09:20:00,
2013-03-12 03:22:00,28.2,22.8,30.07,NE,35,1.0,5.0,80,0.00,,,0.00,0,Wunderground v.1.15,2013-03-12 09:22:00,
2013-03-12 03:26:00,28.1,22.7,30.07,NE,41,1.0,5.0,80,0.00,,,0.00,0,Wunderground v.1.15,2013-03-12 09:26:00,
2013-03-12 03:28:00,28.1,22.7,30.07,NE,41,1.0,5.0,80,0.00,,,0.00,0,Wunderground v.1.15,2013-03-12 09:28:00,
2013-03-12 03:30:00,28.1,22.4,30.07,ENE,65,2.0,2.0,79,0.00,,,0.00,0,Wunderground v.1.15,2013-03-12 09:30:00,
2013-03-12 03:32:00,28.1,22.7,30.07,NE,44,1.0,7.0,80,0.00,,,0.00,0,Wunderground v.1.15,2013-03-12 09:32:00,
2013-03-12 03:33:00,28.1,22.7,30.07,NE,40,1.0,7.0,80,0.00,,,0.00,0,Wunderground v.1.15,2013-03-12 09:33:00,
2013-03-12 03:35:00,28.1,22.7,30.07,NE,40,1.0,7.0,80,0.00,,,0.00,0,Wunderground v.1.15,2013-03-12 09:35:00,
2013-03-12 03:39:00,28.1,22.7,30.07,NE,47,1.0,7.0,80,0.00,,,0.00,0,Wunderground v.1.15,2013-03-12 09:39:00,
2013-03-12 03:41:00,28.1,22.7,30.07,NE,55,1.0,5.0,80,0.00,,,0.00,0,Wunderground v.1.15,2013-03-12 09:41:00,
2013-03-12 03:42:00,28.1,23.0,30.07,NE,37,1.0,7.0,81,0.00,,,0.00,0,Wunderground v.1.15,2013-03-12 09:42:00,
2013-03-12 03:44:00,27.9,22.5,30.07,NE,37,1.0,7.0,80,0.00,,,0.00,0,Wunderground v.1.15,2013-03-12 09:44:00,
2013-03-12 03:46:00,27.9,22.5,30.06,NE,56,1.0,7.0,80,0.00,,,0.00,0,Wunderground v.1.15,2013-03-12 09:46:00,
2013-03-12 03:48:00,27.9,22.5,30.06,NNE,24,1.0,7.0,80,0.00,,,0.00,0,Wunderground v.1.15,2013-03-12 09:48:00,
2013-03-12 03:49:00,27.9,22.5,30.06,NE,45,2.0,7.0,80,0.00,,,0.00,0,Wunderground v.1.15,2013-03-12 09:49:00,
2013-03-12 03:53:00,27.9,22.5,30.06,NE,49,2.0,7.0,80,0.00,,,0.00,0,Wunderground v.1.15,2013-03-12 09:53:00,
2013-03-12 03:54:00,27.9,22.5,30.06,NE,45,2.0,7.0,80,0.00,,,0.00,0,Wunderground v.1.15,2013-03-12 09:54:00,
2013-03-12 03:55:00,27.9,22.5,30.06,NNE,17,2.0,7.0,80,0.00,,,0.00,0,Wunderground v.1.15,2013-03-12 09:55:00,
2013-03-12 03:59:00,27.9,22.5,30.06,NE,37,1.0,7.0,80,0.00,,,0.00,0,Wunderground v.1.15,2013-03-12 09:59:00,
2013-03-12 04:02:00,27.9,22.5,30.07,ENE,75,2.0,7.0,80,0.00,,,0.00,0,Wunderground v.1.15,2013-03-12 10:02:00,
2013-03-12 04:03:00,27.9,22.5,30.07,ENE,71,2.0,7.0,80,0.00,,,0.00,0,Wunderground v.1.15,2013-03-12 10:03:00,
2013-03-12 04:04:00,27.9,22.5,30.07,NE,35,1.0,7.0,80,0.00,,,0.00,0,Wunderground v.1.15,2013-03-12 10:04:00,
2013-03-12 04:05:00,27.9,22.5,30.07,NNE,24,1.0,7.0,80,0.00,,,0.00,0,Wunderground v.1.15,2013-03-12 10:05:00,
2013-03-12 04:09:00,27.9,22.5,30.07,NNE,21,1.0,7.0,80,0.00,,,0.00,0,Wunderground v.1.15,2013-03-12 10:09:00,
2013-03-12 04:13:00,27.8,22.4,30.07,NE,45,1.0,7.0,80,0.00,,,0.00,0,Wunderground v.1.15,2013-03-12 10:13:00,
2013-03-12 04:14:00,27.9,22.8,30.07,NE,45,1.0,7.0,81,0.00,,,0.00,0,Wunderground v.1.15,2013-03-12 10:14:00,
2013-03-12 04:18:00,27.8,22.7,30.08,NE,45,0.0,7.0,81,0.00,,,0.00,0,Wunderground v.1.15,2013-03-12 10:18:00,
2013-03-12 04:19:00,27.8,22.7,30.08,NE,45,0.0,7.0,81,0.00,,,0.00,0,Wunderground v.1.15,2013-03-12 10:19:00,
2013-03-12 04:22:00,27.8,22.7,30.08,NE,45,0.0,7.0,81,0.00,,,0.00,0,Wunderground v.1.15,2013-03-12 10:22:00,
2013-03-12 04:24:00,27.8,22.7,30.08,NE,45,0.0,7.0,81,0.00,,,0.00,0,Wunderground v.1.15,2013-03-12 10:24:00,
2013-03-12 04:25:00,27.8,22.7,30.08,NE,45,0.0,7.0,81,0.00,,,0.00,0,Wunderground v.1.15,2013-03-12 10:25:00,
2013-03-12 04:27:00,27.8,22.7,30.08,NE,47,0.0,7.0,81,0.00,,,0.00,0,Wunderground v.1.15,2013-03-12 10:27:00,
2013-03-12 04:30:00,27.8,22.7,30.09,NE,51,0.0,5.0,81,0.00,,,0.00,0,Wunderground v.1.15,2013-03-12 10:30:00,
2013-03-12 04:32:00,27.8,23.0,30.09,ENE,73,0.0,5.0,82,0.00,,,0.00,0,Wunderground v.1.15,2013-03-12 10:32:00,
2013-03-12 04:33:00,27.6,22.8,30.09,SE,136,0.0,5.0,82,0.00,,,0.00,0,Wunderground v.1.15,2013-03-12 10:33:00,
2013-03-12 04:37:00,27.6,22.8,30.09,ENE,58,0.0,5.0,82,0.00,,,0.00,0,Wunderground v.1.15,2013-03-12 10:37:00,
2013-03-12 04:38:00,27.6,22.8,30.09,ENE,76,0.0,5.0,82,0.00,,,0.00,0,Wunderground v.1.15,2013-03-12 10:38:00,
2013-03-12 04:39:00,27.6,22.8,30.09,ENE,76,0.0,5.0,82,0.00,,,0.00,0,Wunderground v.1.15,2013-03-12 10:39:00,
2013-03-12 04:40:00,27.6,22.8,30.09,ENE,76,0.0,5.0,82,0.00,,,0.00,0,Wunderground v.1.15,2013-03-12 10:40:00,
2013-03-12 04:44:00,27.6,22.8,30.09,ENE,73,0.0,5.0,82,0.00,,,0.00,0,Wunderground v.1.15,2013-03-12 10:44:00,
2013-03-12 04:45:00,27.6,22.8,30.10,ENE,73,0.0,5.0,82,0.00,,,0.00,0,Wunderground v.1.15,2013-03-12 10:45:00,
2013-03-12 04:51:00,27.5,22.7,30.10,ENE,72,0.0,5.0,82,0.00,,,0.00,0,Wunderground v.1.15,2013-03-12 10:51:00,
2013-03-12 04:53:00,27.3,22.8,30.10,NNE,16,0.0,5.0,83,0.00,,,0.00,0,Wunderground v.1.15,2013-03-12 10:53:00,
2013-03-12 04:55:00,27.3,23.1,30.10,ENE,62,0.0,5.0,84,0.00,,,0.00,0,Wunderground v.1.15,2013-03-12 10:55:00,
2013-03-12 04:56:00,27.2,23.0,30.10,NNE,14,1.0,5.0,84,0.00,,,0.00,0,Wunderground v.1.15,2013-03-12 10:56:00,
2013-03-12 04:59:00,27.0,22.5,30.10,NNE,28,1.0,5.0,83,0.00,,,0.00,0,Wunderground v.1.15,2013-03-12 10:59:00,
2013-03-12 05:02:00,26.9,22.4,30.10,NE,51,1.0,6.0,83,0.00,,,0.00,0,Wunderground v.1.15,2013-03-12 11:02:00,
2013-03-12 05:04:00,26.7,22.2,30.10,NE,48,1.0,6.0,83,0.00,,,0.00,0,Wunderground v.1.15,2013-03-12 11:04:00,
2013-03-12 05:06:00,26.7,21.9,30.10,ENE,58,1.0,6.0,82,0.00,,,0.00,0,Wunderground v.1.15,2013-03-12 11:06:00,
2013-03-12 05:07:00,26.6,22.1,30.10,ENE,59,2.0,6.0,83,0.00,,,0.00,0,Wunderground v.1.15,2013-03-12 11:07:00,
2013-03-12 05:13:00,26.4,21.9,30.10,ENE,59,3.0,6.0,83,0.00,,,0.00,0,Wunderground v.1.15,2013-03-12 11:13:00,
2013-03-12 05:15:00,26.4,21.7,30.23,NNE,16,3.0,6.0,82,0.00,,,0.00,0,Wunderground v.1.15,2013-03-12 11:15:00,
2013-03-12 05:19:00,26.4,21.9,30.23,NE,54,2.0,6.0,83,0.00,,,0.00,0,Wunderground v.1.15,2013-03-12 11:19:00,
2013-03-12 05:20:00,26.4,21.7,30.23,ENE,66,2.0,2.0,82,0.00,,,0.00,0,Wunderground v.1.15,2013-03-12 11:20:00,
2013-03-12 05:24:00,26.3,21.3,30.23,ENE,61,2.0,6.0,81,0.00,,,0.00,0,Wunderground v.1.15,2013-03-12 11:24:00,
2013-03-12 05:25:00,26.3,21.6,30.23,NE,41,2.0,6.0,82,0.00,,,0.00,0,Wunderground v.1.15,2013-03-12 11:25:00,
2013-03-12 05:26:00,26.1,21.1,30.23,ENE,78,3.0,6.0,81,0.00,,,0.00,0,Wunderground v.1.15,2013-03-12 11:26:00,
2013-03-12 05:29:00,26.1,20.8,30.23,ENE,71,4.0,6.0,80,0.00,,,0.00,0,Wunderground v.1.15,2013-03-12 11:29:00,
2013-03-12 05:31:00,26.1,21.1,30.23,ENE,64,4.0,7.0,81,0.00,,,0.00,0,Wunderground v.1.15,2013-03-12 11:31:00,
2013-03-12 05:32:00,26.0,20.4,30.23,NE,55,5.0,7.0,79,0.00,,,0.00,0,Wunderground v.1.15,2013-03-12 11:32:00,
2013-03-12 05:37:00,25.8,20.8,30.23,ENE,58,6.0,8.0,81,0.00,,,0.00,0,Wunderground v.1.15,2013-03-12 11:37:00,
2013-03-12 05:38:00,25.8,20.5,30.23,ENE,78,6.0,8.0,80,0.00,,,0.00,0,Wunderground v.1.15,2013-03-12 11:38:00,
2013-03-12 05:42:00,25.8,20.2,30.23,NNE,31,6.0,7.0,79,0.00,,,0.00,0,Wunderground v.1.15,2013-03-12 11:42:00,
2013-03-12 05:44:00,25.8,20.5,30.23,NE,56,6.0,7.0,80,0.00,,,0.00,0,Wunderground v.1.15,2013-03-12 11:44:00,
2013-03-12 05:46:00,25.7,20.1,30.24,NE,37,6.0,7.0,79,0.00,,,0.00,0,Wunderground v.1.15,2013-03-12 11:46:00,
2013-03-12 05:49:00,25.7,20.4,30.24,NE,48,5.0,8.0,80,0.00,,,0.00,0,Wunderground v.1.15,2013-03-12 11:49:00,
2013-03-12 05:53:00,25.7,19.8,30.24,NE,51,6.0,10.0,78,0.00,,,0.00,0,Wunderground v.1.15,2013-03-12 11:53:00,
2013-03-12 05:55:00,25.7,19.2,30.24,ENE,66,6.0,10.0,76,0.00,,,0.00,0,Wunderground v.1.15,2013-03-12 11:55:00,
2013-03-12 05:57:00,25.7,19.5,30.24,ENE,62,6.0,10.0,77,0.00,,,0.00,0,Wunderground v.1.15,2013-03-12 11:57:00,
2013-03-12 06:01:00,25.6,19.4,30.24,NE,48,5.0,10.0,77,0.00,,,0.00,0,Wunderground v.1.15,2013-03-12 12:01:00,
2013-03-12 06:02:00,25.6,19.7,30.24,ENE,69,5.0,10.0,78,0.00,,,0.00,0,Wunderground v.1.15,2013-03-12 12:02:00,
2013-03-12 06:07:00,25.7,19.8,30.24,ESE,123,3.0,10.0,78,0.00,,,0.00,0,Wunderground v.1.15,2013-03-12 12:07:00,
2013-03-12 06:08:00,25.6,19.7,30.24,East,100,2.0,10.0,78,0.00,,,0.00,0,Wunderground v.1.15,2013-03-12 12:08:00,
2013-03-12 06:10:00,25.6,19.7,30.24,ESE,120,2.0,10.0,78,0.00,,,0.00,0,Wunderground v.1.15,2013-03-12 12:10:00,
2013-03-12 06:14:00,25.4,19.8,30.24,ENE,68,0.0,10.0,79,0.00,,,0.00,0,Wunderground v.1.15,2013-03-12 12:14:00,
2013-03-12 06:18:00,25.3,19.4,30.28,ESE,120,1.0,10.0,78,0.00,,,0.00,0,Wunderground v.1.15,2013-03-12 12:18:00,
2013-03-12 06:19:00,25.3,19.7,30.28,ESE,120,1.0,10.0,79,0.00,,,0.00,0,Wunderground v.1.15,2013-03-12 12:19:00,
2013-03-12 06:20:00,25.3,19.7,30.28,ESE,120,1.0,10.0,79,0.00,,,0.00,0,Wunderground v.1.15,2013-03-12 12:20:00,
2013-03-12 06:21:00,25.3,19.7,30.28,ESE,123,1.0,10.0,79,0.00,,,0.00,0,Wunderground v.1.15,2013-03-12 12:21:00,
2013-03-12 06:24:00,25.3,20.0,30.28,ESE,123,2.0,10.0,80,0.00,,,0.00,0,Wunderground v.1.15,2013-03-12 12:24:00,
2013-03-12 06:26:00,25.3,20.0,30.28,ESE,123,1.0,10.0,80,0.00,,,0.00,0,Wunderground v.1.15,2013-03-12 12:26:00,
2013-03-12 06:29:00,25.1,19.5,30.28,East,100,1.0,10.0,79,0.00,,,0.00,0,Wunderground v.1.15,2013-03-12 12:29:00,
2013-03-12 06:31:00,25.1,20.1,30.28,East,100,1.0,7.0,81,0.00,,,0.00,0,Wunderground v.1.15,2013-03-12 12:31:00,
2013-03-12 06:34:00,25.1,19.5,30.28,SE,127,1.0,7.0,79,0.00,,,0.00,0,Wunderground v.1.15,2013-03-12 12:34:00,
2013-03-12 06:37:00,25.1,20.1,30.28,SSE,151,1.0,7.0,81,0.00,,,0.00,0,Wunderground v.1.15,2013-03-12 12:37:00,
2013-03-12 06:39:00,25.1,20.1,30.28,SE,126,1.0,7.0,81,0.00,,,0.00,0,Wunderground v.1.15,2013-03-12 12:39:00,
2013-03-12 06:40:00,25.1,20.1,30.28,SE,131,1.0,1.0,81,0.00,,,0.00,0,Wunderground v.1.15,2013-03-12 12:40:00,
2013-03-12 06:44:00,25.0,20.0,30.28,SE,124,2.0,7.0,81,0.00,,,0.00,0,Wunderground v.1.15,2013-03-12 12:44:00,
2013-03-12 06:45:00,25.0,20.0,30.28,SE,124,2.0,7.0,81,0.00,,,0.00,0,Wunderground v.1.15,2013-03-12 12:45:00,
2013-03-12 06:48:00,25.0,20.0,30.28,ESE,120,2.0,7.0,81,0.00,,,0.00,0,Wunderground v.1.15,2013-03-12 12:48:00,
2013-03-12 06:50:00,25.0,20.0,30.28,ESE,120,2.0,7.0,81,0.00,,,0.00,0,Wunderground v.1.15,2013-03-12 12:50:00,
2013-03-12 06:53:00,25.0,20.3,30.28,ESE,114,1.0,7.0,82,0.00,,,0.00,0,Wunderground v.1.15,2013-03-12 12:53:00,
2013-03-12 06:54:00,24.8,19.5,30.28,NE,55,1.0,7.0,80,0.00,,,0.00,0,Wunderground v.1.15,2013-03-12 12:54:00,
2013-03-12 06:58:00,24.7,20.3,30.28,SE,131,1.0,7.0,83,0.00,,,0.00,0,Wunderground v.1.15,2013-03-12 12:58:00,
2013-03-12 07:00:00,24.5,19.8,30.28,SSE,151,2.0,2.0,82,0.00,,,0.00,0,Wunderground v.1.15,2013-03-12 13:00:00,
2013-03-12 07:02:00,24.5,19.8,30.28,SSE,151,1.0,7.0,82,0.00,,,0.00,0,Wunderground v.1.15,2013-03-12 13:02:00,
2013-03-12 07:03:00,24.5,19.8,30.28,NW,319,1.0,7.0,82,0.00,,,0.00,0,Wunderground v.1.15,2013-03-12 13:03:00,
2013-03-12 07:07:00,24.2,19.5,30.28,NNW,335,1.0,7.0,82,0.00,,,0.00,0,Wunderground v.1.15,2013-03-12 13:07:00,
2013-03-12 07:09:00,24.2,19.8,30.28,North,354,1.0,7.0,83,0.00,,,0.00,0,Wunderground v.1.15,2013-03-12 13:09:00,
2013-03-12 07:12:00,24.1,19.4,30.28,North,359,1.0,7.0,82,0.00,,,0.00,0,Wunderground v.1.15,2013-03-12 13:12:00,
2013-03-12 07:13:00,24.1,19.4,30.28,North,359,1.0,7.0,82,0.00,,,0.00,0,Wunderground v.1.15,2013-03-12 13:13:00,
2013-03-12 07:15:00,23.9,19.2,30.30,NE,45,1.0,7.0,82,0.00,,,0.00,0,Wunderground v.1.15,2013-03-12 13:15:00,
2013-03-12 07:18:00,23.8,18.8,30.30,ENE,61,1.0,7.0,81,0.00,,,0.00,0,Wunderground v.1.15,2013-03-12 13:18:00,
2013-03-12 07:19:00,23.8,18.8,30.30,ENE,65,2.0,7.0,81,0.00,,,0.00,0,Wunderground v.1.15,2013-03-12 13:19:00,
2013-03-12 07:21:00,23.6,18.0,30.30,ENE,65,2.0,7.0,79,0.00,,,0.00,0,Wunderground v.1.15,2013-03-12 13:21:00,
2013-03-12 07:24:00,23.6,18.0,30.30,ENE,65,4.0,7.0,79,0.00,,,0.00,0,Wunderground v.1.15,2013-03-12 13:24:00,
2013-03-12 07:26:00,23.6,18.3,30.30,ENE,72,3.0,7.0,80,0.00,,,0.00,0,Wunderground v.1.15,2013-03-12 13:26:00,
2013-03-12 07:27:00,23.6,18.9,30.30,ENE,61,4.0,7.0,82,0.00,,,0.00,0,Wunderground v.1.15,2013-03-12 13:27:00,
2013-03-12 07:31:00,23.6,18.3,30.31,ESE,104,3.0,3.0,80,0.00,,,0.00,5,Wunderground v.1.15,2013-03-12 13:31:00,
2013-03-12 07:33:00,23.6,18.3,30.31,East,82,2.0,7.0,80,0.00,,,0.00,5,Wunderground v.1.15,2013-03-12 13:33:00,
2013-03-12 07:34:00,23.6,18.3,30.31,ENE,66,2.0,7.0,80,0.00,,,0.00,5,Wunderground v.1.15,2013-03-12 13:34:00,
2013-03-12 07:37:00,23.8,18.5,30.31,ENE,66,2.0,7.0,80,0.00,,,0.00,5,Wunderground v.1.15,2013-03-12 13:37:00,
2013-03-12 07:39:00,23.8,18.5,30.31,East,100,2.0,7.0,80,0.00,,,0.00,5,Wunderground v.1.15,2013-03-12 13:39:00,
2013-03-12 07:40:00,23.8,18.5,30.31,East,100,2.0,2.0,80,0.00,,,0.00,5,Wunderground v.1.15,2013-03-12 13:40:00,
2013-03-12 07:41:00,23.8,18.5,30.31,East,100,1.0,7.0,80,0.00,,,0.00,5,Wunderground v.1.15,2013-03-12 13:41:00,
2013-03-12 07:46:00,23.8,18.5,30.31,East,100,0.0,7.0,80,0.00,,,0.00,7,Wunderground v.1.15,2013-03-12 13:46:00,
2013-03-12 07:48:00,23.8,18.5,30.31,East,100,0.0,7.0,80,0.00,,,0.00,9,Wunderground v.1.15,2013-03-12 13:48:00,
2013-03-12 07:50:00,23.8,18.8,30.31,East,100,0.0,7.0,81,0.00,,,0.00,9,Wunderground v.1.15,2013-03-12 13:50:00,
2013-03-12 07:52:00,23.6,18.6,30.31,East,99,0.0,7.0,81,0.00,,,0.00,11,Wunderground v.1.15,2013-03-12 13:52:00,
2013-03-12 07:53:00,23.6,18.6,30.31,East,99,0.0,7.0,81,0.00,,,0.00,11,Wunderground v.1.15,2013-03-12 13:53:00,
2013-03-12 07:56:00,23.6,18.6,30.31,ESE,104,1.0,7.0,81,0.00,,,0.00,12,Wunderground v.1.15,2013-03-12 13:56:00,
2013-03-12 07:57:00,23.6,18.6,30.31,ESE,110,1.0,7.0,81,0.00,,,0.00,12,Wunderground v.1.15,2013-03-12 13:57:00,
2013-03-12 07:59:00,23.6,18.6,30.31,ENE,72,1.0,7.0,81,0.00,,,0.00,12,Wunderground v.1.15,2013-03-12 13:59:00,
2013-03-12 08:02:00,23.6,18.6,30.31,ENE,68,1.0,6.0,81,0.00,,,0.00,12,Wunderground v.1.15,2013-03-12 14:02:00,
2013-03-12 08:04:00,23.6,18.6,30.31,ENE,68,1.0,6.0,81,0.00,,,0.00,16,Wunderground v.1.15,2013-03-12 14:04:00,
2013-03-12 08:07:00,23.5,18.5,30.31,ENE,68,1.0,6.0,81,0.00,,,0.00,14,Wunderground v.1.15,2013-03-12 14:07:00,
2013-03-12 08:09:00,23.3,18.3,30.31,ESE,119,1.0,6.0,81,0.00,,,0.00,14,Wunderground v.1.15,2013-03-12 14:09:00,
2013-03-12 08:12:00,23.3,18.6,30.31,ESE,116,2.0,6.0,82,0.00,,,0.00,18,Wunderground v.1.15,2013-03-12 14:12:00,
2013-03-12 08:14:00,23.2,17.9,30.31,ESE,107,2.0,6.0,80,0.00,,,0.00,18,Wunderground v.1.15,2013-03-12 14:14:00,
2013-03-12 08:17:00,23.2,17.9,30.33,ESE,112,3.0,6.0,80,0.00,,,0.00,18,Wunderground v.1.15,2013-03-12 14:17:00,
2013-03-12 08:20:00,23.2,17.9,30.33,East,97,3.0,3.0,80,0.00,,,0.00,19,Wunderground v.1.15,2013-03-12 14:20:00,
2013-03-12 08:21:00,23.0,17.5,30.33,ESE,112,3.0,6.0,79,0.00,,,0.00,19,Wunderground v.1.15,2013-03-12 14:21:00,
2013-03-12 08:22:00,23.0,17.7,30.33,East,83,3.0,6.0,80,0.00,,,0.00,19,Wunderground v.1.15,2013-03-12 14:22:00,
2013-03-12 08:27:00,22.9,17.9,30.33,East,96,3.0,6.0,81,0.00,,,0.00,21,Wunderground v.1.15,2013-03-12 14:27:00,
2013-03-12 08:28:00,22.9,17.7,30.33,East,85,3.0,6.0,80,0.00,,,0.00,19,Wunderground v.1.15,2013-03-12 14:28:00,
2013-03-12 08:31:00,22.7,17.7,30.34,East,85,3.0,3.0,81,0.00,,,0.00,19,Wunderground v.1.15,2013-03-12 14:31:00,
2013-03-12 08:32:00,22.9,17.7,30.34,ESE,112,2.0,7.0,80,0.00,,,0.00,18,Wunderground v.1.15,2013-03-12 14:32:00,
2013-03-12 08:36:00,22.9,17.7,30.34,ESE,114,1.0,7.0,80,0.00,,,0.00,18,Wunderground v.1.15,2013-03-12 14:36:00,
2013-03-12 08:38:00,22.9,17.4,30.34,ESE,113,1.0,7.0,79,0.00,,,0.00,18,Wunderground v.1.15,2013-03-12 14:38:00,
2013-03-12 08:39:00,22.9,17.4,30.34,ESE,113,0.0,7.0,79,0.00,,,0.00,18,Wunderground v.1.15,2013-03-12 14:39:00,
2013-03-12 08:42:00,23.0,17.5,30.34,ESE,113,0.0,7.0,79,0.00,,,0.00,14,Wunderground v.1.15,2013-03-12 14:42:00,
2013-03-12 08:43:00,22.9,17.4,30.34,ESE,113,0.0,7.0,79,0.00,,,0.00,14,Wunderground v.1.15,2013-03-12 14:43:00,
2013-03-12 08:46:00,23.0,17.5,30.34,ESE,113,0.0,7.0,79,0.00,,,0.00,16,Wunderground v.1.15,2013-03-12 14:46:00,
2013-03-12 08:49:00,23.0,17.5,30.34,ESE,113,0.0,7.0,79,0.00,,,0.00,21,Wunderground v.1.15,2013-03-12 14:49:00,
2013-03-12 08:51:00,23.0,17.5,30.34,ESE,113,0.0,7.0,79,0.00,,,0.00,21,Wunderground v.1.15,2013-03-12 14:51:00,
2013-03-12 08:53:00,23.2,17.7,30.34,ESE,113,0.0,7.0,79,0.00,,,0.00,19,Wunderground v.1.15,2013-03-12 14:53:00,
2013-03-12 08:57:00,23.2,17.9,30.34,ESE,113,0.0,7.0,80,0.00,,,0.00,25,Wunderground v.1.15,2013-03-12 14:57:00,
2013-03-12 08:58:00,23.2,17.9,30.34,ESE,113,0.0,7.0,80,0.00,,,0.00,21,Wunderground v.1.15,2013-03-12 14:58:00,
2013-03-12 08:59:00,23.2,17.9,30.34,ESE,113,0.0,7.0,80,0.00,,,0.00,18,Wunderground v.1.15,2013-03-12 14:59:00,
2013-03-12 09:01:00,23.2,17.9,30.35,ESE,113,0.0,3.0,80,0.00,,,0.00,18,Wunderground v.1.15,2013-03-12 15:01:00,
2013-03-12 09:04:00,23.2,17.9,30.35,ESE,113,0.0,3.0,80,0.00,,,0.00,19,Wunderground v.1.15,2013-03-12 15:04:00,
2013-03-12 09:05:00,23.2,17.9,30.35,ESE,113,0.0,3.0,80,0.00,,,0.00,19,Wunderground v.1.15,2013-03-12 15:05:00,
2013-03-12 09:06:00,23.2,17.9,30.35,ESE,113,0.0,3.0,80,0.00,,,0.00,25,Wunderground v.1.15,2013-03-12 15:06:00,
2013-03-12 09:10:00,23.2,17.9,30.35,ESE,120,0.0,3.0,80,0.00,,,0.00,32,Wunderground v.1.15,2013-03-12 15:10:00,
2013-03-12 09:12:00,23.2,17.9,30.35,ESE,120,0.0,3.0,80,0.00,,,0.00,32,Wunderground v.1.15,2013-03-12 15:12:00,
2013-03-12 09:15:00,23.3,18.0,30.36,ESE,120,0.0,3.0,80,0.00,,,0.00,46,Wunderground v.1.15,2013-03-12 15:15:00,
2013-03-12 09:18:00,23.3,18.0,30.36,ESE,120,0.0,3.0,80,0.00,,,0.00,46,Wunderground v.1.15,2013-03-12 15:18:00,
2013-03-12 09:19:00,23.5,18.2,30.36,ESE,120,0.0,3.0,80,0.00,,,0.00,46,Wunderground v.1.15,2013-03-12 15:19:00,
2013-03-12 09:21:00,23.5,18.2,30.36,ESE,120,0.0,3.0,80,0.00,,,0.00,44,Wunderground v.1.15,2013-03-12 15:21:00,
2013-03-12 09:22:00,23.5,18.2,30.36,ESE,120,0.0,3.0,80,0.00,,,0.00,44,Wunderground v.1.15,2013-03-12 15:22:00,
2013-03-12 09:27:00,23.5,18.5,30.36,ESE,120,0.0,3.0,81,0.00,,,0.00,48,Wunderground v.1.15,2013-03-12 15:27:00,
2013-03-12 09:29:00,23.5,18.2,30.36,ESE,120,0.0,3.0,80,0.00,,,0.00,48,Wunderground v.1.15,2013-03-12 15:29:00,
2013-03-12 09:34:00,23.5,18.2,30.34,SE,133,1.0,3.0,80,0.00,,,0.00,49,Wunderground v.1.15,2013-03-12 15:34:00,
2013-03-12 09:35:00,23.5,18.5,30.34,SE,133,1.0,3.0,81,0.00,,,0.00,49,Wunderground v.1.15,2013-03-12 15:35:00,
2013-03-12 09:38:00,23.6,18.6,30.34,SE,133,2.0,3.0,81,0.00,,,0.00,51,Wunderground v.1.15,2013-03-12 15:38:00,
2013-03-12 09:40:00,23.6,18.6,30.34,SE,141,2.0,3.0,81,0.00,,,0.00,56,Wunderground v.1.15,2013-03-12 15:40:00,
2013-03-12 09:42:00,23.6,18.3,30.34,SE,137,2.0,3.0,80,0.00,,,0.00,58,Wunderground v.1.15,2013-03-12 15:42:00,
2013-03-12 09:44:00,23.6,18.3,30.34,SE,140,2.0,5.0,80,0.00,,,0.00,56,Wunderground v.1.15,2013-03-12 15:44:00,
2013-03-12 09:47:00,23.8,18.2,30.33,ESE,117,2.0,5.0,79,0.00,,,0.00,62,Wunderground v.1.15,2013-03-12 15:47:00,
2013-03-12 09:48:00,23.8,18.2,30.33,SE,126,2.0,5.0,79,0.00,,,0.00,62,Wunderground v.1.15,2013-03-12 15:48:00,
2013-03-12 09:49:00,23.8,17.9,30.33,SE,124,3.0,5.0,78,0.00,,,0.00,62,Wunderground v.1.15,2013-03-12 15:49:00,
2013-03-12 09:51:00,23.9,18.9,30.33,SE,131,3.0,6.0,81,0.00,,,0.00,62,Wunderground v.1.15,2013-03-12 15:51:00,
2013-03-12 09:53:00,23.9,18.6,30.33,SE,131,3.0,6.0,80,0.00,,,0.00,63,Wunderground v.1.15,2013-03-12 15:53:00,
2013-03-12 09:55:00,23.8,18.2,30.33,SE,134,4.0,7.0,79,0.00,,,0.00,62,Wunderground v.1.15,2013-03-12 15:55:00,
2013-03-12 09:57:00,23.9,18.3,30.33,SE,127,4.0,7.0,79,0.00,,,0.00,63,Wunderground v.1.15,2013-03-12 15:57:00,
2013-03-12 10:00:00,23.6,18.3,30.34,SE,133,5.0,6.0,80,0.00,,,0.00,67,Wunderground v.1.15,2013-03-12 16:00:00,
2013-03-12 10:02:00,23.6,17.7,30.34,SE,130,6.0,10.0,78,0.00,,,0.00,67,Wunderground v.1.15,2013-03-12 16:02:00,
2013-03-12 10:03:00,23.5,17.6,30.34,SE,134,6.0,10.0,78,0.00,,,0.00,65,Wunderground v.1.15,2013-03-12 16:03:00,
2013-03-12 10:04:00,23.5,17.3,30.34,SE,137,6.0,10.0,77,0.00,,,0.00,63,Wunderground v.1.15,2013-03-12 16:04:00,
2013-03-12 10:06:00,23.3,17.2,30.34,SE,127,6.0,10.0,77,0.00,,,0.00,67,Wunderground v.1.15,2013-03-12 16:06:00,
2013-03-12 10:08:00,23.3,16.9,30.34,SE,127,6.0,10.0,76,0.00,,,0.00,67,Wunderground v.1.15,2013-03-12 16:08:00,
2013-03-12 10:10:00,23.3,16.5,30.34,SE,126,6.0,6.0,75,0.00,,,0.00,65,Wunderground v.1.15,2013-03-12 16:10:00,
2013-03-12 10:13:00,23.5,17.0,30.34,ESE,120,5.0,7.0,76,0.00,,,0.00,74,Wunderground v.1.15,2013-03-12 16:13:00,
2013-03-12 10:17:00,23.6,17.1,30.36,SE,133,4.0,7.0,76,0.00,,,0.00,67,Wunderground v.1.15,2013-03-12 16:17:00,
2013-03-12 10:19:00,23.6,17.4,30.36,ESE,121,5.0,7.0,77,0.00,,,0.00,72,Wunderground v.1.15,2013-03-12 16:19:00,
2013-03-12 10:20:00,23.6,17.4,30.36,ESE,116,4.0,4.0,77,0.00,,,0.00,72,Wunderground v.1.15,2013-03-12 16:20:00,
2013-03-12 10:22:00,23.8,17.6,30.36,ESE,116,4.0,6.0,77,0.00,,,0.00,72,Wunderground v.1.15,2013-03-12 16:22:00,
2013-03-12 10:24:00,23.9,17.7,30.36,ESE,116,3.0,6.0,77,0.00,,,0.00,63,Wunderground v.1.15,2013-03-12 16:24:00,
2013-03-12 10:25:00,23.9,17.7,30.36,ESE,116,3.0,6.0,77,0.00,,,0.00,60,Wunderground v.1.15,2013-03-12 16:25:00,
2013-03-12 10:28:00,23.9,17.4,30.36,SE,131,2.0,6.0,76,0.00,,,0.00,67,Wunderground v.1.15,2013-03-12 16:28:00,
2013-03-12 10:29:00,23.9,17.7,30.36,SE,133,2.0,6.0,77,0.00,,,0.00,63,Wunderground v.1.15,2013-03-12 16:29:00,
2013-03-12 10:31:00,23.9,17.7,30.36,ESE,112,2.0,10.0,77,0.00,,,0.00,62,Wunderground v.1.15,2013-03-12 16:31:00,
2013-03-12 10:35:00,24.1,18.2,30.36,ESE,116,3.0,10.0,78,0.00,,,0.00,72,Wunderground v.1.15,2013-03-12 16:35:00,
2013-03-12 10:37:00,24.1,18.5,30.36,SE,141,3.0,10.0,79,0.00,,,0.00,72,Wunderground v.1.15,2013-03-12 16:37:00,
2013-03-12 10:39:00,24.2,18.6,30.36,SE,144,3.0,10.0,79,0.00,,,0.00,70,Wunderground v.1.15,2013-03-12 16:39:00,
2013-03-12 10:42:00,23.9,18.0,30.36,ESE,121,4.0,10.0,78,0.00,,,0.00,72,Wunderground v.1.15,2013-03-12 16:42:00,
2013-03-12 10:44:00,23.8,18.2,30.36,SSE,154,5.0,10.0,79,0.00,,,0.00,84,Wunderground v.1.15,2013-03-12 16:44:00,
2013-03-12 10:45:00,23.8,18.2,30.36,SE,128,5.0,10.0,79,0.00,,,0.00,83,Wunderground v.1.15,2013-03-12 16:45:00,
2013-03-12 10:47:00,23.9,17.7,30.36,SE,137,5.0,10.0,77,0.00,,,0.00,79,Wunderground v.1.15,2013-03-12 16:47:00,
2013-03-12 10:49:00,23.9,18.0,30.36,SE,144,5.0,10.0,78,0.00,,,0.00,88,Wunderground v.1.15,2013-03-12 16:49:00,
2013-03-12 10:51:00,23.9,18.0,30.36,SE,126,5.0,10.0,78,0.00,,,0.00,84,Wunderground v.1.15,2013-03-12 16:51:00,
2013-03-12 10:54:00,24.2,18.3,30.36,SE,136,3.0,10.0,78,0.00,,,0.00,86,Wunderground v.1.15,2013-03-12 16:54:00,
2013-03-12 10:57:00,24.2,18.0,30.36,SE,134,3.0,10.0,77,0.00,,,0.00,93,Wunderground v.1.15,2013-03-12 16:57:00,
2013-03-12 10:58:00,24.2,18.6,30.36,SE,137,4.0,10.0,79,0.00,,,0.00,93,Wunderground v.1.15,2013-03-12 16:58:00,
2013-03-12 11:02:00,24.4,18.8,30.36,SE,124,4.0,10.0,79,0.00,,,0.00,88,Wunderground v.1.15,2013-03-12 17:02:00,
2013-03-12 11:03:00,24.4,18.5,30.36,SE,133,4.0,10.0,78,0.00,,,0.00,90,Wunderground v.1.15,2013-03-12 17:03:00,
2013-03-12 11:04:00,24.5,18.3,30.36,ESE,113,4.0,10.0,77,0.00,,,0.00,88,Wunderground v.1.15,2013-03-12 17:04:00,
2013-03-12 11:06:00,24.5,18.9,30.36,SE,128,4.0,10.0,79,0.00,,,0.00,91,Wunderground v.1.15,2013-03-12 17:06:00,
2013-03-12 11:08:00,24.5,18.0,30.36,SE,124,4.0,10.0,76,0.00,,,0.00,99,Wunderground v.1.15,2013-03-12 17:08:00,
2013-03-12 11:09:00,24.5,18.3,30.36,SE,133,5.0,10.0,77,0.00,,,0.00,97,Wunderground v.1.15,2013-03-12 17:09:00,
2013-03-12 11:10:00,24.4,18.2,30.36,ESE,117,5.0,11.0,77,0.00,,,0.00,95,Wunderground v.1.15,2013-03-12 17:10:00,
2013-03-12 11:14:00,24.5,18.0,30.36,SE,133,6.0,11.0,76,0.00,,,0.00,99,Wunderground v.1.15,2013-03-12 17:14:00,
2013-03-12 11:15:00,24.5,18.9,30.35,SE,144,7.0,11.0,79,0.00,,,0.00,99,Wunderground v.1.15,2013-03-12 17:15:00,
2013-03-12 11:16:00,24.5,18.9,30.35,ESE,119,7.0,11.0,79,0.00,,,0.00,99,Wunderground v.1.15,2013-03-12 17:16:00,
2013-03-12 11:19:00,24.5,18.3,30.35,ESE,121,7.0,11.0,77,0.00,,,0.00,91,Wunderground v.1.15,2013-03-12 17:19:00,
2013-03-12 11:22:00,24.5,18.3,30.35,SE,130,6.0,10.0,77,0.00,,,0.00,95,Wunderground v.1.15,2013-03-12 17:22:00,
2013-03-12 11:23:00,24.4,18.2,30.35,SE,136,7.0,10.0,77,0.00,,,0.00,95,Wunderground v.1.15,2013-03-12 17:23:00,
2013-03-12 11:24:00,24.4,18.2,30.35,ESE,123,7.0,10.0,77,0.00,,,0.00,95,Wunderground v.1.15,2013-03-12 17:24:00,
2013-03-12 11:26:00,24.5,18.3,30.35,SE,128,7.0,10.0,77,0.00,,,0.00,90,Wunderground v.1.15,2013-03-12 17:26:00,
2013-03-12 11:27:00,24.5,18.6,30.35,ESE,121,7.0,10.0,78,0.00,,,0.00,95,Wunderground v.1.15,2013-03-12 17:27:00,
2013-03-12 11:30:00,24.8,19.2,30.35,SSE,148,6.0,6.0,79,0.00,,,0.00,97,Wunderground v.1.15,2013-03-12 17:30:00,
2013-03-12 11:31:00,24.8,19.2,30.35,ESE,107,6.0,11.0,79,0.00,,,0.00,97,Wunderground v.1.15,2013-03-12 17:31:00,
2013-03-12 11:34:00,24.7,18.5,30.35,SE,127,5.0,11.0,77,0.00,,,0.00,100,Wunderground v.1.15,2013-03-12 17:34:00,
2013-03-12 11:36:00,24.5,17.7,30.35,SE,138,5.0,11.0,75,0.00,,,0.00,93,Wunderground v.1.15,2013-03-12 17:36:00,
2013-03-12 11:39:00,24.5,17.4,30.35,SE,126,5.0,11.0,74,0.00,,,0.00,104,Wunderground v.1.15,2013-03-12 17:39:00,
2013-03-12 11:41:00,24.4,17.0,30.35,ESE,123,5.0,11.0,73,0.00,,,0.00,102,Wunderground v.1.15,2013-03-12 17:41:00,
2013-03-12 11:43:00,24.4,17.0,30.35,ESE,121,5.0,11.0,73,0.00,,,0.00,109,Wunderground v.1.15,2013-03-12 17:43:00,
2013-03-12 11:44:00,24.5,17.4,30.35,ESE,110,5.0,11.0,74,0.00,,,0.00,107,Wunderground v.1.15,2013-03-12 17:44:00,
2013-03-12 11:46:00,24.7,17.6,30.34,ESE,104,5.0,11.0,74,0.00,,,0.00,100,Wunderground v.1.15,2013-03-12 17:46:00,
2013-03-12 11:48:00,24.8,17.7,30.34,SE,133,4.0,11.0,74,0.00,,,0.00,95,Wunderground v.1.15,2013-03-12 17:48:00,
2013-03-12 11:49:00,24.8,17.7,30.34,ESE,112,4.0,11.0,74,0.00,,,0.00,95,Wunderground v.1.15,2013-03-12 17:49:00,
2013-03-12 11:50:00,25.0,17.9,30.34,ESE,103,4.0,4.0,74,0.00,,,0.00,97,Wunderground v.1.15,2013-03-12 17:50:00,
2013-03-12 11:52:00,25.0,17.9,30.34,East,100,4.0,11.0,74,0.00,,,0.00,97,Wunderground v.1.15,2013-03-12 17:52:00,
2013-03-12 11:54:00,25.1,18.3,30.34,ESE,121,4.0,11.0,75,0.00,,,0.00,99,Wunderground v.1.15,2013-03-12 17:54:00,
2013-03-12 11:56:00,25.1,18.0,30.34,SSE,147,3.0,11.0,74,0.00,,,0.00,97,Wunderground v.1.15,2013-03-12 17:56:00,
2013-03-12 11:58:00,25.1,17.3,30.34,ESE,112,3.0,11.0,72,0.00,,,0.00,104,Wunderground v.1.15,2013-03-12 17:58:00,
2013-03-12 12:02:00,24.8,15.7,30.34,SE,134,4.0,10.0,68,0.00,,,0.00,99,Wunderground v.1.15,2013-03-12 18:02:00,
2013-03-12 12:03:00,24.8,15.7,30.34,SE,130,4.0,10.0,68,0.00,,,0.00,97,Wunderground v.1.15,2013-03-12 18:03:00,
2013-03-12 12:06:00,24.7,16.6,30.34,SE,141,5.0,10.0,71,0.00,,,0.00,99,Wunderground v.1.15,2013-03-12 18:06:00,
2013-03-12 12:08:00,24.8,16.7,30.34,SE,141,5.0,10.0,71,0.00,,,0.00,93,Wunderground v.1.15,2013-03-12 18:08:00,
2013-03-12 12:09:00,24.8,16.4,30.34,SE,144,5.0,10.0,70,0.00,,,0.00,90,Wunderground v.1.15,2013-03-12 18:09:00,
2013-03-12 12:12:00,25.0,16.9,30.34,ESE,117,4.0,7.0,71,0.00,,,0.00,104,Wunderground v.1.15,2013-03-12 18:12:00,
2013-03-12 12:13:00,24.8,16.7,30.34,ESE,121,4.0,10.0,71,0.00,,,0.00,102,Wunderground v.1.15,2013-03-12 18:13:00,
2013-03-12 12:15:00,25.0,17.6,30.35,SE,124,3.0,10.0,73,0.00,,,0.00,97,Wunderground v.1.15,2013-03-12 18:15:00,
2013-03-12 12:17:00,25.1,17.7,30.35,SE,143,3.0,10.0,73,0.00,,,0.00,120,Wunderground v.1.15,2013-03-12 18:17:00,
2013-03-12 12:20:00,25.3,17.9,30.35,SE,138,3.0,3.0,73,0.00,,,0.00,113,Wunderground v.1.15,2013-03-12 18:20:00,
2013-03-12 12:22:00,25.3,17.9,30.35,ESE,117,3.0,10.0,73,0.00,,,0.00,120,Wunderground v.1.15,2013-03-12 18:22:00,
2013-03-12 12:24:00,25.3,18.2,30.35,ESE,120,3.0,10.0,74,0.00,,,0.00,118,Wunderground v.1.15,2013-03-12 18:24:00,
2013-03-12 12:27:00,25.3,17.9,30.35,SE,138,4.0,10.0,73,0.00,,,0.00,137,Wunderground v.1.15,2013-03-12 18:27:00,
2013-03-12 12:28:00,25.4,18.3,30.35,SE,137,4.0,10.0,74,0.00,,,0.00,139,Wunderground v.1.15,2013-03-12 18:28:00,
2013-03-12 12:29:00,25.4,17.9,30.35,ESE,123,4.0,10.0,73,0.00,,,0.00,132,Wunderground v.1.15,2013-03-12 18:29:00,
2013-03-12 12:33:00,25.4,17.9,30.34,SE,133,4.0,10.0,73,0.00,,,0.00,141,Wunderground v.1.15,2013-03-12 18:33:00,
2013-03-12 12:34:00,25.4,18.6,30.34,ESE,112,4.0,10.0,75,0.00,,,0.00,141,Wunderground v.1.15,2013-03-12 18:34:00,
2013-03-12 12:35:00,25.4,17.9,30.34,SE,140,5.0,10.0,73,0.00,,,0.00,137,Wunderground v.1.15,2013-03-12 18:35:00,
2013-03-12 12:38:00,25.4,17.9,30.34,South,185,5.0,10.0,73,0.00,,,0.00,135,Wunderground v.1.15,2013-03-12 18:38:00,
2013-03-12 12:40:00,25.4,17.9,30.34,SE,145,6.0,10.0,73,0.00,,,0.00,132,Wunderground v.1.15,2013-03-12 18:40:00,
2013-03-12 12:42:00,25.4,18.3,30.34,SE,131,6.0,10.0,74,0.00,,,0.00,125,Wunderground v.1.15,2013-03-12 18:42:00,
2013-03-12 12:45:00,25.3,17.9,30.34,SE,126,6.0,10.0,73,0.00,,,0.00,130,Wunderground v.1.15,2013-03-12 18:45:00,
2013-03-12 12:47:00,25.3,17.2,30.34,ESE,110,6.0,10.0,71,0.00,,,0.00,144,Wunderground v.1.15,2013-03-12 18:47:00,
2013-03-12 12:48:00,25.3,17.2,30.34,SE,134,6.0,10.0,71,0.00,,,0.00,144,Wunderground v.1.15,2013-03-12 18:48:00,
2013-03-12 12:51:00,25.4,17.6,30.34,SE,124,6.0,10.0,72,0.00,,,0.00,153,Wunderground v.1.15,2013-03-12 18:51:00,
2013-03-12 12:52:00,25.4,17.9,30.34,SE,144,6.0,10.0,73,0.00,,,0.00,155,Wunderground v.1.15,2013-03-12 18:52:00,
2013-03-12 12:56:00,25.4,17.6,30.34,SE,136,7.0,11.0,72,0.00,,,0.00,158,Wunderground v.1.15,2013-03-12 18:56:00,
2013-03-12 12:57:00,25.4,17.3,30.34,SE,145,7.0,11.0,71,0.00,,,0.00,165,Wunderground v.1.15,2013-03-12 18:57:00,
2013-03-12 12:58:00,25.4,17.3,30.34,SE,126,7.0,11.0,71,0.00,,,0.00,169,Wunderground v.1.15,2013-03-12 18:58:00,
2013-03-12 12:59:00,25.4,17.6,30.34,ESE,113,8.0,11.0,72,0.00,,,0.00,164,Wunderground v.1.15,2013-03-12 18:59:00,
2013-03-12 13:03:00,25.6,18.1,30.33,SE,137,8.0,12.0,73,0.00,,,0.00,157,Wunderground v.1.15,2013-03-12 19:03:00,
2013-03-12 13:04:00,25.4,17.3,30.33,SE,145,8.0,12.0,71,0.00,,,0.00,157,Wunderground v.1.15,2013-03-12 19:04:00,
2013-03-12 13:06:00,25.6,17.5,30.33,ESE,117,9.0,12.0,71,0.00,,,0.00,144,Wunderground v.1.15,2013-03-12 19:06:00,
2013-03-12 13:09:00,25.6,18.1,30.33,SE,128,7.0,12.0,73,0.00,,,0.00,137,Wunderground v.1.15,2013-03-12 19:09:00,
2013-03-12 13:12:00,25.6,17.8,30.33,ESE,120,7.0,12.0,72,0.00,,,0.00,146,Wunderground v.1.15,2013-03-12 19:12:00,
2013-03-12 13:14:00,25.6,18.1,30.33,SSE,150,7.0,12.0,73,0.00,,,0.00,151,Wunderground v.1.15,2013-03-12 19:14:00,
2013-03-12 13:15:00,25.7,17.9,30.33,SE,124,6.0,12.0,72,0.00,,,0.00,144,Wunderground v.1.15,2013-03-12 19:15:00,
2013-03-12 13:18:00,25.6,17.5,30.33,ESE,120,7.0,12.0,71,0.00,,,0.00,134,Wunderground v.1.15,2013-03-12 19:18:00,
2013-03-12 13:20:00,25.6,17.5,30.33,ESE,116,7.0,12.0,71,0.00,,,0.00,137,Wunderground v.1.15,2013-03-12 19:20:00,
2013-03-12 13:21:00,25.4,17.0,30.33,SE,126,7.0,12.0,70,0.00,,,0.00,137,Wunderground v.1.15,2013-03-12 19:21:00,
2013-03-12 13:24:00,25.4,17.3,30.33,SE,143,7.0,12.0,71,0.00,,,0.00,134,Wunderground v.1.15,2013-03-12 19:24:00,
2013-03-12 13:27:00,25.6,17.5,30.33,SE,126,8.0,12.0,71,0.00,,,0.00,162,Wunderground v.1.15,2013-03-12 19:27:00,
2013-03-12 13:28:00,25.6,17.2,30.33,SE,127,8.0,12.0,70,0.00,,,0.00,160,Wunderground v.1.15,2013-03-12 19:28:00,
2013-03-12 13:29:00,25.7,17.6,30.33,ESE,110,7.0,12.0,71,0.00,,,0.00,150,Wunderground v.1.15,2013-03-12 19:29:00,
2013-03-12 13:31:00,25.8,17.4,30.33,ESE,120,7.0,12.0,70,0.00,,,0.00,171,Wunderground v.1.15,2013-03-12 19:31:00,
2013-03-12 13:32:00,25.8,17.7,30.33,SE,144,6.0,12.0,71,0.00,,,0.00,179,Wunderground v.1.15,2013-03-12 19:32:00,
2013-03-12 13:34:00,26.0,18.5,30.33,SE,131,6.0,12.0,73,0.00,,,0.00,155,Wunderground v.1.15,2013-03-12 19:34:00,
2013-03-12 13:35:00,26.0,17.9,30.33,SE,143,6.0,12.0,71,0.00,,,0.00,148,Wunderground v.1.15,2013-03-12 19:35:00,
2013-03-12 13:37:00,26.3,18.5,30.33,SE,143,4.0,12.0,72,0.00,,,0.00,171,Wunderground v.1.15,2013-03-12 19:37:00,
2013-03-12 13:39:00,26.6,18.8,30.33,SE,136,4.0,12.0,72,0.00,,,0.00,164,Wunderground v.1.15,2013-03-12 19:39:00,
2013-03-12 13:40:00,26.6,18.5,30.33,SSE,152,3.0,12.0,71,0.00,,,0.00,169,Wunderground v.1.15,2013-03-12 19:40:00,
2013-03-12 13:44:00,26.3,18.2,30.33,SE,128,3.0,12.0,71,0.00,,,0.00,171,Wunderground v.1.15,2013-03-12 19:44:00,
2013-03-12 13:46:00,26.1,18.3,30.31,East,100,4.0,12.0,72,0.00,,,0.00,178,Wunderground v.1.15,2013-03-12 19:46:00,
2013-03-12 13:47:00,26.3,18.5,30.31,East,100,5.0,12.0,72,0.00,,,0.00,179,Wunderground v.1.15,2013-03-12 19:47:00,
2013-03-12 13:51:00,26.3,18.2,30.31,SE,128,6.0,12.0,71,0.00,,,0.00,176,Wunderground v.1.15,2013-03-12 19:51:00,
2013-03-12 13:52:00,26.3,17.8,30.31,SE,141,6.0,12.0,70,0.00,,,0.00,176,Wunderground v.1.15,2013-03-12 19:52:00,
2013-03-12 13:53:00,26.3,18.2,30.31,ESE,104,6.0,12.0,71,0.00,,,0.00,176,Wunderground v.1.15,2013-03-12 19:53:00,
2013-03-12 13:56:00,26.3,18.8,30.31,SE,136,5.0,12.0,73,0.00,,,0.00,181,Wunderground v.1.15,2013-03-12 19:56:00,
2013-03-12 13:58:00,26.4,18.6,30.31,SE,128,5.0,12.0,72,0.00,,,0.00,179,Wunderground v.1.15,2013-03-12 19:58:00,
2013-03-12 13:59:00,26.6,19.4,30.31,SSE,155,5.0,12.0,74,0.00,,,0.00,176,Wunderground v.1.15,2013-03-12 19:59:00,
2013-03-12 14:02:00,26.6,18.5,30.30,ESE,114,5.0,11.0,71,0.00,,,0.00,185,Wunderground v.1.15,2013-03-12 20:02:00,
2013-03-12 14:06:00,26.7,18.9,30.30,SE,126,5.0,11.0,72,0.00,,,0.00,209,Wunderground v.1.15,2013-03-12 20:06:00,
2013-03-12 14:09:00,27.0,19.2,30.30,SE,137,5.0,11.0,72,0.00,,,0.00,209,Wunderground v.1.15,2013-03-12 20:09:00,
2013-03-12 14:12:00,26.9,18.4,30.30,SSE,147,4.0,11.0,70,0.00,,,0.00,220,Wunderground v.1.15,2013-03-12 20:12:00,
2013-03-12 14:13:00,26.9,19.1,30.30,SE,126,4.0,11.0,72,0.00,,,0.00,208,Wunderground v.1.15,2013-03-12 20:13:00,
2013-03-12 14:16:00,26.9,19.4,30.30,SE,136,4.0,11.0,73,0.00,,,0.00,213,Wunderground v.1.15,2013-03-12 20:16:00,
2013-03-12 14:17:00,27.0,19.2,30.30,ESE,112,4.0,11.0,72,0.00,,,0.00,201,Wunderground v.1.15,2013-03-12 20:17:00,
2013-03-12 14:19:00,26.9,19.1,30.30,SE,140,5.0,11.0,72,0.00,,,0.00,181,Wunderground v.1.15,2013-03-12 20:19:00,
2013-03-12 14:22:00,26.7,18.9,30.30,SSE,157,5.0,12.0,72,0.00,,,0.00,201,Wunderground v.1.15,2013-03-12 20:22:00,
2013-03-12 14:24:00,26.9,19.1,30.30,SSE,167,5.0,12.0,72,0.00,,,0.00,195,Wunderground v.1.15,2013-03-12 20:24:00,
2013-03-12 14:25:00,27.0,18.8,30.30,South,174,5.0,12.0,71,0.00,,,0.00,195,Wunderground v.1.15,2013-03-12 20:25:00,
2013-03-12 14:29:00,27.0,19.2,30.30,ESE,107,4.0,12.0,72,0.00,,,0.00,195,Wunderground v.1.15,2013-03-12 20:29:00,
2013-03-12 14:30:00,27.0,18.8,30.30,SSE,152,4.0,11.0,71,0.00,,,0.00,209,Wunderground v.1.15,2013-03-12 20:30:00,
2013-03-12 14:33:00,27.0,19.2,30.30,ESE,113,4.0,11.0,72,0.00,,,0.00,218,Wunderground v.1.15,2013-03-12 20:33:00,
2013-03-12 14:34:00,27.0,19.5,30.30,ESE,119,4.0,11.0,73,0.00,,,0.00,220,Wunderground v.1.15,2013-03-12 20:34:00,
2013-03-12 14:38:00,27.0,19.2,30.30,SE,127,4.0,11.0,72,0.00,,,0.00,216,Wunderground v.1.15,2013-03-12 20:38:00,
2013-03-12 14:39:00,26.9,18.7,30.30,SE,130,5.0,11.0,71,0.00,,,0.00,229,Wunderground v.1.15,2013-03-12 20:39:00,
2013-03-12 14:40:00,27.0,19.2,30.30,SE,140,5.0,11.0,72,0.00,,,0.00,241,Wunderground v.1.15,2013-03-12 20:40:00,
2013-03-12 14:42:00,26.9,19.4,30.30,SE,136,5.0,11.0,73,0.00,,,0.00,204,Wunderground v.1.15,2013-03-12 20:42:00,
2013-03-12 14:43:00,27.0,19.2,30.30,SE,131,4.0,11.0,72,0.00,,,0.00,213,Wunderground v.1.15,2013-03-12 20:43:00,
2013-03-12 14:45:00,27.2,19.4,30.30,SE,136,4.0,11.0,72,0.00,,,0.00,227,Wunderground v.1.15,2013-03-12 20:45:00,
2013-03-12 14:46:00,27.2,19.4,30.30,SSE,148,4.0,11.0,72,0.00,,,0.00,227,Wunderground v.1.15,2013-03-12 20:46:00,
2013-03-12 14:47:00,27.3,19.5,30.30,SE,143,5.0,11.0,72,0.00,,,0.00,239,Wunderground v.1.15,2013-03-12 20:47:00,
2013-03-12 14:50:00,27.2,19.4,30.30,ESE,106,4.0,4.0,72,0.00,,,0.00,202,Wunderground v.1.15,2013-03-12 20:50:00,
2013-03-12 14:52:00,27.3,19.5,30.30,SE,136,4.0,11.0,72,0.00,,,0.00,225,Wunderground v.1.15,2013-03-12 20:52:00,
2013-03-12 14:56:00,27.3,20.1,30.30,SE,128,5.0,11.0,74,0.00,,,0.00,229,Wunderground v.1.15,2013-03-12 20:56:00,
2013-03-12 14:57:00,27.3,19.5,30.30,SE,141,5.0,11.0,72,0.00,,,0.00,222,Wunderground v.1.15,2013-03-12 20:57:00,
2013-03-12 14:58:00,27.2,19.7,30.30,SE,134,5.0,11.0,73,0.00,,,0.00,209,Wunderground v.1.15,2013-03-12 20:58:00,
2013-03-12 15:02:00,27.6,19.8,30.29,East,93,4.0,11.0,72,0.00,,,0.00,236,Wunderground v.1.15,2013-03-12 21:02:00,
2013-03-12 15:05:00,27.6,19.8,30.29,East,93,3.0,11.0,72,0.00,,,0.00,213,Wunderground v.1.15,2013-03-12 21:05:00,
2013-03-12 15:08:00,27.6,19.4,30.29,SE,138,2.0,11.0,71,0.00,,,0.00,227,Wunderground v.1.15,2013-03-12 21:08:00,
2013-03-12 15:12:00,27.5,20.0,30.29,SE,128,3.0,11.0,73,0.00,,,0.00,194,Wunderground v.1.15,2013-03-12 21:12:00,
2013-03-12 15:13:00,27.5,19.7,30.29,SE,128,3.0,11.0,72,0.00,,,0.00,197,Wunderground v.1.15,2013-03-12 21:13:00,
2013-03-12 15:14:00,27.5,19.3,30.29,SE,128,3.0,11.0,71,0.00,,,0.00,197,Wunderground v.1.15,2013-03-12 21:14:00,
2013-03-12 15:18:00,27.6,19.4,30.28,SE,144,3.0,11.0,71,0.00,,,0.00,204,Wunderground v.1.15,2013-03-12 21:18:00,
2013-03-12 15:20:00,27.5,19.7,30.28,SE,140,3.0,11.0,72,0.00,,,0.00,262,Wunderground v.1.15,2013-03-12 21:20:00,
2013-03-12 15:23:00,27.5,19.7,30.28,SE,136,4.0,11.0,72,0.00,,,0.00,197,Wunderground v.1.15,2013-03-12 21:23:00,
2013-03-12 15:24:00,27.5,20.0,30.28,ESE,120,4.0,11.0,73,0.00,,,0.00,229,Wunderground v.1.15,2013-03-12 21:24:00,
2013-03-12 15:25:00,27.5,19.7,30.28,SE,130,4.0,11.0,72,0.00,,,0.00,259,Wunderground v.1.15,2013-03-12 21:25:00,
2013-03-12 15:28:00,27.5,19.7,30.28,ESE,121,5.0,11.0,72,0.00,,,0.00,165,Wunderground v.1.15,2013-03-12 21:28:00,
2013-03-12 15:29:00,27.5,19.7,30.28,ESE,121,4.0,11.0,72,0.00,,,0.00,179,Wunderground v.1.15,2013-03-12 21:29:00,
2013-03-12 15:33:00,27.8,19.3,30.27,SE,143,3.0,10.0,70,0.00,,,0.00,252,Wunderground v.1.15,2013-03-12 21:33:00,
2013-03-12 15:34:00,27.8,19.6,30.27,SE,143,3.0,10.0,71,0.00,,,0.00,282,Wunderground v.1.15,2013-03-12 21:34:00,
2013-03-12 15:36:00,27.9,19.7,30.27,SE,126,3.0,10.0,71,0.00,,,0.00,310,Wunderground v.1.15,2013-03-12 21:36:00,
2013-03-12 15:39:00,27.9,20.0,30.27,SE,130,4.0,10.0,72,0.00,,,0.00,252,Wunderground v.1.15,2013-03-12 21:39:00,
2013-03-12 15:42:00,28.1,20.2,30.27,ESE,114,4.0,10.0,72,0.00,,,0.00,262,Wunderground v.1.15,2013-03-12 21:42:00,
2013-03-12 15:44:00,28.2,20.0,30.27,SE,131,3.0,10.0,71,0.00,,,0.01,252,Wunderground v.1.15,2013-03-12 21:44:00,
2013-03-12 15:45:00,28.2,20.0,30.26,SE,130,3.0,10.0,71,0.00,,,0.01,252,Wunderground v.1.15,2013-03-12 21:45:00,
2013-03-12 15:47:00,28.4,20.2,30.26,SE,130,2.0,10.0,71,0.00,,,0.01,229,Wunderground v.1.15,2013-03-12 21:47:00,
2013-03-12 15:48:00,28.5,20.6,30.26,SE,130,1.0,10.0,72,0.00,,,0.01,218,Wunderground v.1.15,2013-03-12 21:48:00,
2013-03-12 15:52:00,28.8,20.6,30.26,SE,130,0.0,10.0,71,0.00,,,0.01,296,Wunderground v.1.15,2013-03-12 21:52:00,
2013-03-12 15:55:00,28.8,20.6,30.26,SE,131,2.0,10.0,71,0.00,,,0.01,222,Wunderground v.1.15,2013-03-12 21:55:00,
2013-03-12 15:56:00,28.8,20.9,30.26,ESE,119,2.0,10.0,72,0.00,,,0.01,222,Wunderground v.1.15,2013-03-12 21:56:00,
2013-03-12 15:57:00,29.0,21.1,30.26,SE,145,2.0,10.0,72,0.00,,,0.01,222,Wunderground v.1.15,2013-03-12 21:57:00,
2013-03-12 15:58:00,28.8,20.9,30.26,SE,133,2.0,10.0,72,0.00,,,0.01,368,Wunderground v.1.15,2013-03-12 21:58:00,
2013-03-12 16:00:00,28.8,20.6,30.26,SE,141,3.0,8.0,71,0.00,,,0.01,278,Wunderground v.1.15,2013-03-12 22:00:00,
2013-03-12 16:02:00,28.7,20.5,30.26,SE,124,4.0,8.0,71,0.00,,,0.01,324,Wunderground v.1.15,2013-03-12 22:02:00,
2013-03-12 16:04:00,28.7,20.5,30.26,SE,136,3.0,8.0,71,0.00,,,0.01,304,Wunderground v.1.15,2013-03-12 22:04:00,
2013-03-12 16:08:00,28.7,20.5,30.26,ESE,120,4.0,8.0,71,0.00,,,0.01,354,Wunderground v.1.15,2013-03-12 22:08:00,
2013-03-12 16:09:00,28.7,20.5,30.26,SE,128,4.0,8.0,71,0.00,,,0.01,238,Wunderground v.1.15,2013-03-12 22:09:00,
2013-03-12 16:11:00,28.5,20.6,30.26,ESE,121,4.0,8.0,72,0.00,,,0.01,225,Wunderground v.1.15,2013-03-12 22:11:00,
2013-03-12 16:13:00,28.5,20.3,30.26,SE,138,5.0,8.0,71,0.00,,,0.01,310,Wunderground v.1.15,2013-03-12 22:13:00,
2013-03-12 16:15:00,28.7,20.8,30.26,ESE,120,4.0,8.0,72,0.00,,,0.01,215,Wunderground v.1.15,2013-03-12 22:15:00,
2013-03-12 16:16:00,28.8,21.2,30.26,East,96,4.0,8.0,73,0.00,,,0.01,297,Wunderground v.1.15,2013-03-12 22:16:00,
2013-03-12 16:20:00,28.8,20.9,30.26,ESE,112,3.0,3.0,72,0.00,,,0.02,220,Wunderground v.1.15,2013-03-12 22:20:00,
2013-03-12 16:22:00,29.0,21.1,30.26,ESE,107,2.0,8.0,72,0.00,,,0.02,223,Wunderground v.1.15,2013-03-12 22:22:00,
2013-03-12 16:25:00,29.1,20.9,30.26,ESE,109,1.0,8.0,71,0.00,,,0.02,326,Wunderground v.1.15,2013-03-12 22:25:00,
2013-03-12 16:30:00,29.5,21.3,30.26,SE,136,1.0,10.0,71,0.00,,,0.02,433,Wunderground v.1.15,2013-03-12 22:30:00,
2013-03-12 16:32:00,29.5,20.6,30.26,SE,128,2.0,10.0,69,0.00,,,0.02,426,Wunderground v.1.15,2013-03-12 22:32:00,
2013-03-12 16:33:00,29.5,20.9,30.26,ESE,113,2.0,10.0,70,0.00,,,0.02,421,Wunderground v.1.15,2013-03-12 22:33:00,
2013-03-12 16:35:00,29.7,21.1,30.26,SE,126,2.0,10.0,70,0.04,,,0.03,377,Wunderground v.1.15,2013-03-12 22:35:00,
2013-03-12 16:37:00,29.8,21.2,30.26,ENE,75,2.0,10.0,70,0.04,,,0.03,333,Wunderground v.1.15,2013-03-12 22:37:00,
2013-03-12 16:38:00,29.8,21.2,30.26,ENE,75,1.0,10.0,70,0.04,,,0.03,331,Wunderground v.1.15,2013-03-12 22:38:00,
2013-03-12 16:44:00,30.3,21.7,30.26,SSE,147,1.0,10.0,70,0.04,,,0.03,267,Wunderground v.1.15,2013-03-12 22:44:00,
2013-03-12 16:45:00,30.3,21.3,30.26,SE,137,0.0,10.0,69,0.04,,,0.03,234,Wunderground v.1.15,2013-03-12 22:45:00,
2013-03-12 16:50:00,30.1,21.2,30.26,SE,143,1.0,1.0,69,0.04,,,0.03,274,Wunderground v.1.15,2013-03-12 22:50:00,
2013-03-12 16:51:00,30.3,21.3,30.26,SE,143,1.0,10.0,69,0.04,,,0.04,274,Wunderground v.1.15,2013-03-12 22:51:00,
2013-03-12 16:55:00,30.9,21.6,30.26,SW,226,1.0,10.0,68,0.04,,,0.04,318,Wunderground v.1.15,2013-03-12 22:55:00,
2013-03-12 16:58:00,31.0,22.0,30.26,South,171,0.0,10.0,69,0.04,,,0.04,329,Wunderground v.1.15,2013-03-12 22:58:00,
2013-03-12 17:01:00,31.2,22.2,30.25,SSE,165,0.0,6.0,69,0.04,,,0.04,345,Wunderground v.1.15,2013-03-12 23:01:00,
2013-03-12 17:04:00,30.9,21.6,30.25,ESE,113,1.0,6.0,68,0.05,,,0.05,290,Wunderground v.1.15,2013-03-12 23:04:00,
2013-03-12 17:06:00,31.2,21.9,30.25,ESE,113,1.0,6.0,68,0.05,,,0.05,310,Wunderground v.1.15,2013-03-12 23:06:00,
2013-03-12 17:09:00,31.6,21.9,30.25,SSW,192,1.0,6.0,67,0.05,,,0.05,266,Wunderground v.1.15,2013-03-12 23:09:00,
2013-03-12 17:10:00,31.8,22.1,30.25,WSW,237,1.0,1.0,67,0.05,,,0.05,297,Wunderground v.1.15,2013-03-12 23:10:00,
2013-03-12 17:12:00,31.9,21.8,30.25,WSW,237,1.0,6.0,66,0.05,,,0.05,287,Wunderground v.1.15,2013-03-12 23:12:00,
2013-03-12 17:15:00,32.1,22.0,30.24,WSW,237,0.0,6.0,66,0.05,,,0.06,280,Wunderground v.1.15,2013-03-12 23:15:00,
2013-03-12 17:16:00,32.4,22.3,30.24,WSW,237,0.0,6.0,66,0.05,,,0.06,259,Wunderground v.1.15,2013-03-12 23:16:00,
2013-03-12 17:20:00,32.4,22.7,30.24,SSE,157,0.0,6.0,67,0.05,,,0.06,195,Wunderground v.1.15,2013-03-12 23:20:00,
2013-03-12 17:25:00,32.1,22.0,30.24,SSW,206,1.0,6.0,66,0.06,,,0.07,213,Wunderground v.1.15,2013-03-12 23:25:00,
2013-03-12 17:26:00,32.1,22.0,30.24,SSW,206,1.0,6.0,66,0.06,,,0.07,172,Wunderground v.1.15,2013-03-12 23:26:00,
2013-03-12 17:27:00,31.9,21.8,30.24,SSW,206,1.0,6.0,66,0.06,,,0.07,150,Wunderground v.1.15,2013-03-12 23:27:00,
2013-03-12 17:29:00,31.9,22.2,30.24,SSW,206,1.0,6.0,67,0.06,,,0.07,169,Wunderground v.1.15,2013-03-12 23:29:00,
2013-03-12 17:32:00,31.8,22.4,30.23,SSW,205,1.0,5.0,68,0.06,,,0.07,158,Wunderground v.1.15,2013-03-12 23:32:00,
2013-03-12 17:33:00,31.8,22.4,30.23,SSW,205,1.0,5.0,68,0.06,,,0.07,181,Wunderground v.1.15,2013-03-12 23:33:00,
2013-03-12 17:34:00,31.6,22.2,30.23,SSW,205,0.0,5.0,68,0.05,,,0.07,195,Wunderground v.1.15,2013-03-12 23:34:00,
2013-03-12 17:36:00,31.5,22.1,30.23,SSW,205,0.0,5.0,68,0.05,,,0.08,155,Wunderground v.1.15,2013-03-12 23:36:00,
2013-03-12 17:39:00,31.6,22.2,30.23,SSW,205,0.0,5.0,68,0.05,,,0.08,143,Wunderground v.1.15,2013-03-12 23:39:00,
2013-03-12 17:40:00,31.8,22.4,30.23,SSW,205,0.0,5.0,68,0.05,,,0.08,144,Wunderground v.1.15,2013-03-12 23:40:00,
2013-03-12 17:42:00,31.9,22.2,30.23,SSW,205,0.0,5.0,67,0.05,,,0.08,160,Wunderground v.1.15,2013-03-12 23:42:00,
2013-03-12 17:43:00,31.9,22.2,30.23,SSW,205,0.0,5.0,67,0.05,,,0.08,141,Wunderground v.1.15,2013-03-12 23:43:00,
2013-03-12 17:48:00,31.5,22.1,30.23,ESE,121,1.0,7.0,68,0.05,,,0.09,91,Wunderground v.1.15,2013-03-12 23:48:00,
2013-03-12 17:50:00,31.3,22.3,30.23,ESE,116,2.0,2.0,69,0.05,,,0.09,46,Wunderground v.1.15,2013-03-12 23:50:00,
2013-03-12 17:53:00,31.0,22.4,30.23,ESE,102,3.0,5.0,70,0.05,,,0.09,46,Wunderground v.1.15,2013-03-12 23:53:00,
2013-03-12 17:54:00,30.9,22.6,30.23,ESE,103,3.0,5.0,71,0.05,,,0.09,44,Wunderground v.1.15,2013-03-12 23:54:00,
2013-03-12 17:55:00,30.9,22.6,30.23,ESE,103,3.0,5.0,71,0.05,,,0.09,44,Wunderground v.1.15,2013-03-12 23:55:00,
2013-03-12 17:57:00,30.7,22.4,30.23,East,100,3.0,5.0,71,0.05,,,0.09,42,Wunderground v.1.15,2013-03-12 23:57:00,
2013-03-12 17:58:00,30.6,22.0,30.23,ESE,102,3.0,5.0,70,0.05,,,0.09,40,Wunderground v.1.15,2013-03-12 23:58:00,
2013-03-12 17:59:00,30.6,22.0,30.23,ESE,102,3.0,5.0,70,0.05,,,0.09,40,Wunderground v.1.15,2013-03-12 23:59:00,
2013-03-12 18:02:00,30.4,22.1,30.25,ESE,102,3.0,7.0,71,0.04,,,0.09,39,Wunderground v.1.15,2013-03-13 00:02:00,
2013-03-12 18:04:00,30.4,22.1,30.25,East,100,3.0,7.0,71,0.04,,,0.09,46,Wunderground v.1.15,2013-03-13 00:04:00,
2013-03-12 18:07:00,30.3,22.0,30.25,East,100,2.0,7.0,71,0.00,,,0.09,51,Wunderground v.1.15,2013-03-13 00:07:00,
2013-03-12 18:08:00,30.3,22.4,30.25,East,100,2.0,7.0,72,0.00,,,0.09,53,Wunderground v.1.15,2013-03-13 00:08:00,
2013-03-12 18:11:00,30.3,22.4,30.25,East,100,1.0,7.0,72,0.00,,,0.09,48,Wunderground v.1.15,2013-03-13 00:11:00,
2013-03-12 18:14:00,30.3,22.4,30.25,East,100,1.0,7.0,72,0.00,,,0.09,32,Wunderground v.1.15,2013-03-13 00:14:00,
2013-03-12 18:16:00,30.1,21.8,30.25,East,100,1.0,7.0,71,0.00,,,0.09,28,Wunderground v.1.15,2013-03-13 00:16:00,
2013-03-12 18:17:00,30.1,21.8,30.25,East,100,1.0,7.0,71,0.00,,,0.09,26,Wunderground v.1.15,2013-03-13 00:17:00,
2013-03-12 18:18:00,30.1,21.8,30.25,East,100,1.0,7.0,71,0.00,,,0.09,26,Wunderground v.1.15,2013-03-13 00:18:00,
2013-03-12 18:19:00,30.0,22.1,30.25,East,100,1.0,7.0,72,0.00,,,0.09,26,Wunderground v.1.15,2013-03-13 00:19:00,
2013-03-12 18:23:00,30.0,22.4,30.25,East,100,1.0,7.0,73,0.00,,,0.09,28,Wunderground v.1.15,2013-03-13 00:23:00,
2013-03-12 18:24:00,30.0,22.4,30.25,East,100,1.0,7.0,73,0.00,,,0.09,28,Wunderground v.1.15,2013-03-13 00:24:00,
2013-03-12 18:25:00,29.8,22.2,30.25,East,100,1.0,7.0,73,0.00,,,0.09,28,Wunderground v.1.15,2013-03-13 00:25:00,
2013-03-12 18:27:00,29.8,22.2,30.25,East,100,0.0,7.0,73,0.00,,,0.09,26,Wunderground v.1.15,2013-03-13 00:27:00,
2013-03-12 18:30:00,29.8,22.2,30.26,East,100,0.0,6.0,73,0.00,,,0.09,23,Wunderground v.1.15,2013-03-13 00:30:00,
2013-03-12 18:32:00,29.7,22.1,30.26,East,100,0.0,6.0,73,0.00,,,0.09,21,Wunderground v.1.15,2013-03-13 00:32:00,
2013-03-12 18:33:00,29.7,22.1,30.26,East,100,0.0,6.0,73,0.00,,,0.09,21,Wunderground v.1.15,2013-03-13 00:33:00,
2013-03-12 18:34:00,29.7,22.1,30.26,East,100,0.0,6.0,73,0.00,,,0.09,19,Wunderground v.1.15,2013-03-13 00:34:00,
2013-03-12 18:37:00,29.5,21.9,30.26,East,100,0.0,6.0,73,0.00,,,0.09,16,Wunderground v.1.15,2013-03-13 00:37:00,
2013-03-12 18:38:00,29.5,21.9,30.26,East,100,0.0,6.0,73,0.00,,,0.09,16,Wunderground v.1.15,2013-03-13 00:38:00,
2013-03-12 18:39:00,29.5,21.9,30.26,East,100,0.0,6.0,73,0.00,,,0.09,14,Wunderground v.1.15,2013-03-13 00:39:00,
2013-03-12 18:43:00,29.5,21.9,30.26,East,100,0.0,6.0,73,0.00,,,0.09,12,Wunderground v.1.15,2013-03-13 00:43:00,
2013-03-12 18:45:00,29.5,21.9,30.26,East,100,0.0,6.0,73,0.00,,,0.09,12,Wunderground v.1.15,2013-03-13 00:45:00,
2013-03-12 18:46:00,29.5,21.9,30.26,East,100,0.0,6.0,73,0.00,,,0.09,12,Wunderground v.1.15,2013-03-13 00:46:00,
2013-03-12 18:49:00,29.5,22.2,30.26,East,100,0.0,6.0,74,0.00,,,0.09,11,Wunderground v.1.15,2013-03-13 00:49:00,
2013-03-12 18:52:00,29.4,22.1,30.26,East,100,0.0,6.0,74,0.00,,,0.09,11,Wunderground v.1.15,2013-03-13 00:52:00,
2013-03-12 18:54:00,29.4,22.1,30.26,East,100,0.0,6.0,74,0.00,,,0.09,9,Wunderground v.1.15,2013-03-13 00:54:00,
2013-03-12 18:55:00,29.4,22.1,30.26,East,100,0.0,6.0,74,0.00,,,0.09,9,Wunderground v.1.15,2013-03-13 00:55:00,
2013-03-12 18:56:00,29.4,22.1,30.26,East,100,0.0,6.0,74,0.00,,,0.09,9,Wunderground v.1.15,2013-03-13 00:56:00,
2013-03-12 19:01:00,29.3,22.4,30.26,East,100,0.0,2.0,75,0.00,,,0.09,7,Wunderground v.1.15,2013-03-13 01:01:00,
2013-03-12 19:02:00,29.3,22.4,30.26,East,100,0.0,2.0,75,0.00,,,0.09,5,Wunderground v.1.15,2013-03-13 01:02:00,
2013-03-12 19:03:00,29.3,22.4,30.26,East,100,0.0,2.0,75,0.00,,,0.09,5,Wunderground v.1.15,2013-03-13 01:03:00,
2013-03-12 19:05:00,29.3,22.7,30.26,East,100,0.0,2.0,76,0.00,,,0.09,5,Wunderground v.1.15,2013-03-13 01:05:00,
2013-03-12 19:08:00,29.1,22.5,30.26,East,100,0.0,2.0,76,0.00,,,0.09,0,Wunderground v.1.15,2013-03-13 01:08:00,
2013-03-12 19:10:00,29.1,22.5,30.26,East,100,0.0,0.0,76,0.00,,,0.09,0,Wunderground v.1.15,2013-03-13 01:10:00,
2013-03-12 19:12:00,29.0,22.7,30.26,East,100,0.0,0.0,77,0.00,,,0.09,0,Wunderground v.1.15,2013-03-13 01:12:00,
2013-03-12 19:14:00,29.0,22.7,30.26,East,100,0.0,0.0,77,0.00,,,0.09,0,Wunderground v.1.15,2013-03-13 01:14:00,
2013-03-12 19:16:00,28.8,22.5,30.28,East,100,0.0,0.0,77,0.00,,,0.09,0,Wunderground v.1.15,2013-03-13 01:16:00,
2013-03-12 19:19:00,28.8,22.8,30.28,East,100,0.0,0.0,78,0.00,,,0.09,0,Wunderground v.1.15,2013-03-13 01:19:00,
2013-03-12 19:20:00,28.8,22.8,30.28,East,100,0.0,0.0,78,0.00,,,0.09,0,Wunderground v.1.15,2013-03-13 01:20:00,
2013-03-12 19:21:00,28.8,22.8,30.28,East,100,0.0,0.0,78,0.00,,,0.09,0,Wunderground v.1.15,2013-03-13 01:21:00,
2013-03-12 19:23:00,28.7,22.7,30.28,East,100,0.0,0.0,78,0.00,,,0.09,0,Wunderground v.1.15,2013-03-13 01:23:00,
2013-03-12 19:26:00,28.7,22.7,30.28,East,100,0.0,0.0,78,0.00,,,0.09,0,Wunderground v.1.15,2013-03-13 01:26:00,
2013-03-12 19:28:00,28.7,22.7,30.28,East,100,0.0,0.0,78,0.00,,,0.09,0,Wunderground v.1.15,2013-03-13 01:28:00,
2013-03-12 19:29:00,28.7,22.7,30.28,East,100,0.0,0.0,78,0.00,,,0.09,0,Wunderground v.1.15,2013-03-13 01:29:00,
2013-03-12 19:32:00,28.7,22.7,30.27,East,100,0.0,3.0,78,0.00,,,0.09,0,Wunderground v.1.15,2013-03-13 01:32:00,
2013-03-12 19:33:00,28.7,22.7,30.27,East,100,0.0,3.0,78,0.00,,,0.09,0,Wunderground v.1.15,2013-03-13 01:33:00,
2013-03-12 19:34:00,28.7,22.7,30.27,East,100,0.0,3.0,78,0.00,,,0.09,0,Wunderground v.1.15,2013-03-13 01:34:00,
2013-03-12 19:39:00,28.7,23.0,30.27,East,100,0.0,5.0,79,0.00,,,0.09,0,Wunderground v.1.15,2013-03-13 01:39:00,
2013-03-12 19:40:00,28.8,23.1,30.27,NNW,333,0.0,6.0,79,0.00,,,0.09,0,Wunderground v.1.15,2013-03-13 01:40:00,
2013-03-12 19:42:00,29.0,22.7,30.27,NNW,333,1.0,6.0,77,0.00,,,0.09,0,Wunderground v.1.15,2013-03-13 01:42:00,
2013-03-12 19:43:00,29.0,23.0,30.27,NNW,333,1.0,6.0,78,0.00,,,0.09,0,Wunderground v.1.15,2013-03-13 01:43:00,
2013-03-12 19:48:00,29.1,23.1,30.26,NNW,333,1.0,6.0,78,0.00,,,0.09,0,Wunderground v.1.15,2013-03-13 01:48:00,
2013-03-12 19:49:00,29.1,23.1,30.26,NNW,333,1.0,6.0,78,0.00,,,0.09,0,Wunderground v.1.15,2013-03-13 01:49:00,
2013-03-12 19:50:00,29.1,23.1,30.26,NNW,333,1.0,1.0,78,0.00,,,0.09,0,Wunderground v.1.15,2013-03-13 01:50:00,
2013-03-12 19:53:00,29.1,22.8,30.26,NNW,333,0.0,3.0,77,0.00,,,0.09,0,Wunderground v.1.15,2013-03-13 01:53:00,
2013-03-12 19:55:00,29.0,23.0,30.26,NNW,333,0.0,3.0,78,0.00,,,0.09,0,Wunderground v.1.15,2013-03-13 01:55:00,
2013-03-12 19:56:00,29.0,23.0,30.26,NNW,333,0.0,3.0,78,0.00,,,0.09,0,Wunderground v.1.15,2013-03-13 01:56:00,
2013-03-12 19:59:00,28.7,22.7,30.26,NNW,333,0.0,3.0,78,0.00,,,0.09,0,Wunderground v.1.15,2013-03-13 01:59:00,
2013-03-12 20:01:00,28.5,22.5,30.26,NNW,333,0.0,7.0,78,0.00,,,0.09,0,Wunderground v.1.15,2013-03-13 02:01:00,
2013-03-12 20:03:00,28.4,22.4,30.26,NNW,333,0.0,7.0,78,0.00,,,0.09,0,Wunderground v.1.15,2013-03-13 02:03:00,
2013-03-12 20:08:00,27.9,21.9,30.26,NNW,333,0.0,7.0,78,0.00,,,0.09,0,Wunderground v.1.15,2013-03-13 02:08:00,
2013-03-12 20:09:00,27.8,21.8,30.26,NNW,333,0.0,7.0,78,0.00,,,0.09,0,Wunderground v.1.15,2013-03-13 02:09:00,
2013-03-12 20:10:00,27.8,21.8,30.26,NNW,333,0.0,7.0,78,0.00,,,0.09,0,Wunderground v.1.15,2013-03-13 02:10:00,
2013-03-12 20:11:00,27.6,21.6,30.26,NNW,333,0.0,7.0,78,0.00,,,0.09,0,Wunderground v.1.15,2013-03-13 02:11:00,
2013-03-12 20:15:00,27.5,21.5,30.28,NNW,333,0.0,7.0,78,0.00,,,0.09,0,Wunderground v.1.15,2013-03-13 02:15:00,
2013-03-12 20:17:00,27.5,21.8,30.28,NNW,333,0.0,7.0,79,0.00,,,0.09,0,Wunderground v.1.15,2013-03-13 02:17:00,
2013-03-12 20:20:00,27.5,21.8,30.28,NNW,333,0.0,7.0,79,0.00,,,0.09,0,Wunderground v.1.15,2013-03-13 02:20:00,
2013-03-12 20:21:00,27.5,21.8,30.28,NNW,333,0.0,7.0,79,0.00,,,0.09,0,Wunderground v.1.15,2013-03-13 02:21:00,
2013-03-12 20:24:00,27.3,21.6,30.28,NNW,333,0.0,7.0,79,0.00,,,0.09,0,Wunderground v.1.15,2013-03-13 02:24:00,
2013-03-12 20:25:00,27.3,21.6,30.28,NNW,333,0.0,7.0,79,0.00,,,0.09,0,Wunderground v.1.15,2013-03-13 02:25:00,
2013-03-12 20:26:00,27.3,21.6,30.28,NNW,333,0.0,7.0,79,0.00,,,0.09,0,Wunderground v.1.15,2013-03-13 02:26:00,
2013-03-12 20:27:00,27.3,21.6,30.28,NNW,333,0.0,7.0,79,0.00,,,0.09,0,Wunderground v.1.15,2013-03-13 02:27:00,
2013-03-12 20:29:00,27.3,21.9,30.28,NNW,333,0.0,7.0,80,0.00,,,0.09,0,Wunderground v.1.15,2013-03-13 02:29:00,
2013-03-12 20:31:00,27.3,21.9,30.27,NNW,333,0.0,0.0,80,0.00,,,0.09,0,Wunderground v.1.15,2013-03-13 02:31:00,
2013-03-12 20:35:00,27.3,21.9,30.27,NNW,333,0.0,0.0,80,0.00,,,0.09,0,Wunderground v.1.15,2013-03-13 02:35:00,
2013-03-12 20:36:00,27.3,21.9,30.27,NNW,333,0.0,0.0,80,0.00,,,0.09,0,Wunderground v.1.15,2013-03-13 02:36:00,
2013-03-12 20:37:00,27.3,21.9,30.27,NNW,333,0.0,0.0,80,0.00,,,0.09,0,Wunderground v.1.15,2013-03-13 02:37:00,
2013-03-12 20:40:00,27.2,21.8,30.27,NNW,333,0.0,0.0,80,0.00,,,0.09,0,Wunderground v.1.15,2013-03-13 02:40:00,
2013-03-12 20:41:00,27.2,21.8,30.27,NNW,333,0.0,0.0,80,0.00,,,0.09,0,Wunderground v.1.15,2013-03-13 02:41:00,
2013-03-12 20:44:00,27.3,22.2,30.27,NNW,333,0.0,2.0,81,0.00,,,0.09,0,Wunderground v.1.15,2013-03-13 02:44:00,
2013-03-12 20:45:00,27.3,22.2,30.28,NNW,333,0.0,2.0,81,0.00,,,0.09,0,Wunderground v.1.15,2013-03-13 02:45:00,
2013-03-12 20:49:00,27.6,22.5,30.28,NNW,333,0.0,2.0,81,0.00,,,0.09,0,Wunderground v.1.15,2013-03-13 02:49:00,
2013-03-12 20:50:00,27.8,22.7,30.28,NNW,333,0.0,0.0,81,0.00,,,0.09,0,Wunderground v.1.15,2013-03-13 02:50:00,
2013-03-12 20:53:00,27.8,22.7,30.28,NNW,333,0.0,0.0,81,0.00,,,0.09,0,Wunderground v.1.15,2013-03-13 02:53:00,
2013-03-12 20:55:00,27.8,22.7,30.28,NNW,333,0.0,0.0,81,0.00,,,0.09,0,Wunderground v.1.15,2013-03-13 02:55:00,
2013-03-12 20:59:00,27.8,22.7,30.28,NNW,333,0.0,0.0,81,0.00,,,0.09,0,Wunderground v.1.15,2013-03-13 02:59:00,
2013-03-12 21:03:00,27.8,23.0,30.28,NNW,333,0.0,2.0,82,0.00,,,0.09,0,Wunderground v.1.15,2013-03-13 03:03:00,
2013-03-12 21:04:00,27.8,23.0,30.28,NNW,333,0.0,2.0,82,0.00,,,0.09,0,Wunderground v.1.15,2013-03-13 03:04:00,
2013-03-12 21:05:00,27.8,23.0,30.28,NNW,333,0.0,2.0,82,0.00,,,0.09,0,Wunderground v.1.15,2013-03-13 03:05:00,
2013-03-12 21:10:00,27.6,22.8,30.28,NNW,333,0.0,2.0,82,0.00,,,0.09,0,Wunderground v.1.15,2013-03-13 03:10:00,
2013-03-12 21:12:00,27.6,22.8,30.28,East,97,0.0,2.0,82,0.00,,,0.09,0,Wunderground v.1.15,2013-03-13 03:12:00,
2013-03-12 21:15:00,27.6,22.8,30.28,East,97,0.0,2.0,82,0.00,,,0.09,0,Wunderground v.1.15,2013-03-13 03:15:00,
2013-03-12 21:19:00,27.6,22.8,30.28,East,97,0.0,2.0,82,0.00,,,0.09,0,Wunderground v.1.15,2013-03-13 03:19:00,
2013-03-12 21:21:00,27.5,22.7,30.28,East,97,0.0,2.0,82,0.00,,,0.09,0,Wunderground v.1.15,2013-03-13 03:21:00,
2013-03-12 21:25:00,27.3,22.5,30.28,East,97,0.0,2.0,82,0.00,,,0.09,0,Wunderground v.1.15,2013-03-13 03:25:00,
2013-03-12 21:27:00,27.3,22.5,30.28,East,97,0.0,2.0,82,0.00,,,0.09,0,Wunderground v.1.15,2013-03-13 03:27:00,
2013-03-12 21:28:00,27.3,22.5,30.28,East,97,0.0,2.0,82,0.00,,,0.09,0,Wunderground v.1.15,2013-03-13 03:28:00,
2013-03-12 21:32:00,27.6,22.8,30.28,East,97,0.0,3.0,82,0.00,,,0.09,0,Wunderground v.1.15,2013-03-13 03:32:00,
2013-03-12 21:33:00,27.6,22.8,30.28,East,97,0.0,3.0,82,0.00,,,0.09,0,Wunderground v.1.15,2013-03-13 03:33:00,
2013-03-12 21:34:00,27.6,22.8,30.28,East,97,0.0,3.0,82,0.00,,,0.09,0,Wunderground v.1.15,2013-03-13 03:34:00,
2013-03-12 21:36:00,27.5,22.7,30.28,East,97,0.0,3.0,82,0.00,,,0.09,0,Wunderground v.1.15,2013-03-13 03:36:00,
2013-03-12 21:39:00,27.5,22.7,30.28,East,97,0.0,3.0,82,0.00,,,0.09,0,Wunderground v.1.15,2013-03-13 03:39:00,
2013-03-12 21:42:00,27.6,22.8,30.28,East,97,0.0,3.0,82,0.00,,,0.09,0,Wunderground v.1.15,2013-03-13 03:42:00,
2013-03-12 21:43:00,27.6,23.1,30.28,East,97,0.0,3.0,83,0.00,,,0.09,0,Wunderground v.1.15,2013-03-13 03:43:00,
2013-03-12 21:48:00,27.8,23.3,30.29,West,280,0.0,3.0,83,0.00,,,0.09,0,Wunderground v.1.15,2013-03-13 03:48:00,
2013-03-12 21:49:00,27.8,23.3,30.29,North,359,0.0,3.0,83,0.00,,,0.09,0,Wunderground v.1.15,2013-03-13 03:49:00,
2013-03-12 21:50:00,27.8,23.3,30.29,North,359,0.0,3.0,83,0.00,,,0.09,0,Wunderground v.1.15,2013-03-13 03:50:00,
2013-03-12 21:52:00,27.9,23.4,30.29,North,359,0.0,3.0,83,0.00,,,0.09,0,Wunderground v.1.15,2013-03-13 03:52:00,
2013-03-12 21:53:00,27.9,23.4,30.29,North,359,0.0,3.0,83,0.00,,,0.09,0,Wunderground v.1.15,2013-03-13 03:53:00,
2013-03-12 21:56:00,27.9,23.4,30.29,North,359,0.0,3.0,83,0.00,,,0.09,0,Wunderground v.1.15,2013-03-13 03:56:00,
2013-03-12 21:57:00,28.1,23.6,30.29,North,359,0.0,3.0,83,0.00,,,0.09,0,Wunderground v.1.15,2013-03-13 03:57:00,
2013-03-12 22:00:00,28.2,23.7,30.28,North,359,0.0,0.0,83,0.00,,,0.09,0,Wunderground v.1.15,2013-03-13 04:00:00,
2013-03-12 22:02:00,28.4,23.6,30.28,North,359,0.0,0.0,82,0.00,,,0.09,0,Wunderground v.1.15,2013-03-13 04:02:00,
2013-03-12 22:05:00,28.4,23.6,30.28,North,359,0.0,0.0,82,0.00,,,0.09,0,Wunderground v.1.15,2013-03-13 04:05:00,
2013-03-12 22:07:00,28.4,23.6,30.28,North,359,0.0,0.0,82,0.00,,,0.09,0,Wunderground v.1.15,2013-03-13 04:07:00,
2013-03-12 22:10:00,28.4,23.6,30.28,North,359,0.0,0.0,82,0.00,,,0.09,0,Wunderground v.1.15,2013-03-13 04:10:00,
2013-03-12 22:11:00,28.4,23.6,30.28,North,359,0.0,0.0,82,0.00,,,0.09,0,Wunderground v.1.15,2013-03-13 04:11:00,
2013-03-12 22:15:00,28.4,23.6,30.28,North,359,0.0,0.0,82,0.00,,,0.09,0,Wunderground v.1.15,2013-03-13 04:15:00,
2013-03-12 22:16:00,28.2,23.4,30.28,North,359,0.0,0.0,82,0.00,,,0.09,0,Wunderground v.1.15,2013-03-13 04:16:00,
2013-03-12 22:18:00,28.2,23.4,30.28,North,359,0.0,0.0,82,0.00,,,0.09,0,Wunderground v.1.15,2013-03-13 04:18:00,
2013-03-12 22:22:00,28.2,23.4,30.28,North,359,0.0,0.0,82,0.00,,,0.09,0,Wunderground v.1.15,2013-03-13 04:22:00,
2013-03-12 22:23:00,28.2,23.4,30.28,North,359,0.0,0.0,82,0.00,,,0.09,0,Wunderground v.1.15,2013-03-13 04:23:00,
2013-03-12 22:25:00,28.1,23.3,30.28,North,359,0.0,0.0,82,0.00,,,0.09,0,Wunderground v.1.15,2013-03-13 04:25:00,
2013-03-12 22:26:00,28.1,23.3,30.28,North,359,0.0,0.0,82,0.00,,,0.09,0,Wunderground v.1.15,2013-03-13 04:26:00,
2013-03-12 22:29:00,28.2,23.4,30.28,North,359,0.0,0.0,82,0.00,,,0.09,0,Wunderground v.1.15,2013-03-13 04:29:00,
2013-03-12 22:30:00,28.4,23.6,30.29,North,359,0.0,0.0,82,0.00,,,0.09,0,Wunderground v.1.15,2013-03-13 04:30:00,
2013-03-12 22:33:00,28.5,23.7,30.29,North,359,0.0,0.0,82,0.00,,,0.09,0,Wunderground v.1.15,2013-03-13 04:33:00,
2013-03-12 22:35:00,28.7,23.9,30.29,North,359,0.0,0.0,82,0.00,,,0.09,0,Wunderground v.1.15,2013-03-13 04:35:00,
2013-03-12 22:36:00,28.7,23.9,30.29,North,359,0.0,0.0,82,0.00,,,0.09,0,Wunderground v.1.15,2013-03-13 04:36:00,
2013-03-12 22:39:00,28.7,23.6,30.29,North,359,0.0,0.0,81,0.00,,,0.09,0,Wunderground v.1.15,2013-03-13 04:39:00,
2013-03-12 22:40:00,28.7,23.6,30.29,North,359,0.0,0.0,81,0.00,,,0.09,0,Wunderground v.1.15,2013-03-13 04:40:00,
2013-03-12 22:42:00,28.8,23.7,30.29,North,359,0.0,0.0,81,0.00,,,0.09,0,Wunderground v.1.15,2013-03-13 04:42:00,
2013-03-12 22:44:00,28.8,23.7,30.29,North,359,0.0,0.0,81,0.00,,,0.09,0,Wunderground v.1.15,2013-03-13 04:44:00,
2013-03-12 22:45:00,28.8,23.7,30.30,North,359,0.0,0.0,81,0.00,,,0.09,0,Wunderground v.1.15,2013-03-13 04:45:00,
2013-03-12 22:47:00,28.8,23.7,30.30,North,359,0.0,0.0,81,0.00,,,0.09,0,Wunderground v.1.15,2013-03-13 04:47:00,
2013-03-12 22:52:00,28.8,23.7,30.30,West,272,0.0,5.0,81,0.00,,,0.09,0,Wunderground v.1.15,2013-03-13 04:52:00,
2013-03-12 22:53:00,28.8,24.0,30.30,West,275,0.0,5.0,82,0.00,,,0.09,0,Wunderground v.1.15,2013-03-13 04:53:00,
2013-03-12 22:54:00,28.8,24.0,30.30,West,275,0.0,5.0,82,0.00,,,0.09,0,Wunderground v.1.15,2013-03-13 04:54:00,
2013-03-12 22:58:00,28.8,24.0,30.30,WNW,296,0.0,5.0,82,0.00,,,0.09,0,Wunderground v.1.15,2013-03-13 04:58:00,
2013-03-12 22:59:00,29.0,24.2,30.30,WNW,296,0.0,5.0,82,0.00,,,0.09,0,Wunderground v.1.15,2013-03-13 04:59:00,
2013-03-12 23:01:00,29.0,24.2,30.29,WNW,296,0.0,0.0,82,0.00,,,0.09,0,Wunderground v.1.15,2013-03-13 05:01:00,
2013-03-12 23:02:00,29.0,24.2,30.29,WNW,296,0.0,0.0,82,0.00,,,0.09,0,Wunderground v.1.15,2013-03-13 05:02:00,
2013-03-12 23:04:00,29.0,24.2,30.29,WNW,296,0.0,0.0,82,0.00,,,0.09,0,Wunderground v.1.15,2013-03-13 05:04:00,
2013-03-12 23:06:00,29.1,24.3,30.29,WNW,296,0.0,5.0,82,0.00,,,0.09,0,Wunderground v.1.15,2013-03-13 05:06:00,
2013-03-12 23:07:00,29.0,24.2,30.29,WNW,296,0.0,5.0,82,0.00,,,0.09,0,Wunderground v.1.15,2013-03-13 05:07:00,
2013-03-12 23:09:00,29.0,24.2,30.29,WNW,296,0.0,5.0,82,0.00,,,0.09,0,Wunderground v.1.15,2013-03-13 05:09:00,
2013-03-12 23:12:00,28.8,24.0,30.29,WNW,296,1.0,1.0,82,0.00,,,0.09,0,Wunderground v.1.15,2013-03-13 05:12:00,
2013-03-12 23:13:00,28.8,24.0,30.29,WNW,296,1.0,1.0,82,0.00,,,0.09,0,Wunderground v.1.15,2013-03-13 05:13:00,
2013-03-12 23:15:00,28.8,23.7,30.27,WNW,296,1.0,1.0,81,0.00,,,0.09,0,Wunderground v.1.15,2013-03-13 05:15:00,
2013-03-12 23:16:00,28.8,23.7,30.27,WNW,296,1.0,1.0,81,0.00,,,0.09,0,Wunderground v.1.15,2013-03-13 05:16:00,
2013-03-12 23:19:00,29.0,23.9,30.27,WNW,296,0.0,1.0,81,0.00,,,0.09,0,Wunderground v.1.15,2013-03-13 05:19:00,
2013-03-12 23:20:00,29.0,23.9,30.27,WNW,296,0.0,0.0,81,0.00,,,0.09,0,Wunderground v.1.15,2013-03-13 05:20:00,
2013-03-12 23:25:00,29.0,23.9,30.27,WNW,296,0.0,0.0,81,0.00,,,0.09,0,Wunderground v.1.15,2013-03-13 05:25:00,
2013-03-12 23:26:00,29.0,23.9,30.27,WNW,296,0.0,0.0,81,0.00,,,0.09,0,Wunderground v.1.15,2013-03-13 05:26:00,
2013-03-12 23:29:00,28.8,23.7,30.27,WNW,296,0.0,0.0,81,0.00,,,0.09,0,Wunderground v.1.15,2013-03-13 05:29:00,
2013-03-12 23:31:00,28.7,23.6,30.27,WNW,296,0.0,5.0,81,0.00,,,0.09,0,Wunderground v.1.15,2013-03-13 05:31:00,
2013-03-12 23:33:00,28.7,23.6,30.27,WNW,298,0.0,5.0,81,0.00,,,0.09,0,Wunderground v.1.15,2013-03-13 05:33:00,
2013-03-12 23:35:00,28.5,23.4,30.27,WNW,298,0.0,5.0,81,0.00,,,0.09,0,Wunderground v.1.15,2013-03-13 05:35:00,
2013-03-12 23:36:00,28.5,23.4,30.27,WNW,298,0.0,5.0,81,0.00,,,0.09,0,Wunderground v.1.15,2013-03-13 05:36:00,
2013-03-12 23:39:00,28.5,23.4,30.27,WNW,298,0.0,5.0,81,0.00,,,0.09,0,Wunderground v.1.15,2013-03-13 05:39:00,
2013-03-12 23:42:00,28.5,23.4,30.27,WNW,298,0.0,5.0,81,0.00,,,0.09,0,Wunderground v.1.15,2013-03-13 05:42:00,
2013-03-12 23:45:00,28.5,23.7,30.27,East,96,0.0,5.0,82,0.00,,,0.09,0,Wunderground v.1.15,2013-03-13 05:45:00,
2013-03-12 23:47:00,28.5,23.7,30.27,East,96,0.0,5.0,82,0.00,,,0.09,0,Wunderground v.1.15,2013-03-13 05:47:00,
2013-03-12 23:48:00,28.5,23.7,30.27,East,96,0.0,5.0,82,0.00,,,0.09,0,Wunderground v.1.15,2013-03-13 05:48:00,
2013-03-12 23:52:00,28.5,23.7,30.27,SW,224,0.0,5.0,82,0.00,,,0.09,0,Wunderground v.1.15,2013-03-13 05:52:00,
2013-03-12 23:54:00,28.5,23.7,30.27,SW,224,0.0,5.0,82,0.00,,,0.09,0,Wunderground v.1.15,2013-03-13 05:54:00,
2013-03-12 23:57:00,28.4,23.6,30.27,ESE,112,0.0,5.0,82,0.00,,,0.09,0,Wunderground v.1.15,2013-03-13 05:57:00,
2013-03-12 23:58:00,28.4,23.6,30.27,ESE,110,0.0,5.0,82,0.00,,,0.09,0,Wunderground v.1.15,2013-03-13 05:58:00,